GFSNE_con_3kmhel_000.txt.gz
Helicity
274 296 352 346 355 408 398 384 361 295 316 303 361 422 399 305 295 311 318 268 223 193 200 239 258 212 182 148 151 151 128 147 193 193 155 154 155 133
255 264 292 307 306 363 403 357 350 349 303 310 294 377 415 412 346 382 314 313 233 211 246 287 245 197 155 136 139 137 144 184 206 203 170 172 154 144
169 201 217 226 276 303 347 325 330 334 349 297 256 290 395 490 491 371 339 360 366 258 269 294 231 182 144 132 143 146 172 220 225 197 184 163 147 145
134 142 145 178 201 259 326 345 347 328 286 263 222 272 365 431 473 430 361 323 418 320 256 239 187 132 120 156 159 170 205 233 220 181 169 158 138 107
107 118 114 118 145 190 274 340 406 376 340 268 223 254 405 454 525 452 367 320 318 283 255 217 163 142 166 168 171 180 190 224 181 156 148 136 108 88
106 126 126 118 111 119 155 217 301 311 326 358 245 298 569 539 490 525 432 394 380 344 277 244 214 175 178 175 168 165 198 196 155 154 129 110 83 73
74 85 122 128 112 102 130 126 168 272 272 318 288 388 563 579 532 537 390 481 329 370 322 323 284 239 218 171 167 170 195 155 158 134 104 78 89 54
40 71 96 96 80 66 77 86 117 166 133 251 419 433 464 489 462 585 494 540 445 315 340 292 270 221 216 231 155 182 150 151 139 92 74 71 67 52
46 57 71 99 105 86 43 63 87 135 172 183 154 295 461 502 452 542 427 458 425 325 345 254 245 157 213 197 128 137 119 132 103 84 66 58 54 49
44 40 55 67 73 79 87 59 89 86 171 205 196 205 247 428 434 455 382 526 504 381 258 230 211 217 216 172 128 105 125 105 102 80 68 54 50 47
53 57 59 57 38 67 86 97 58 106 201 264 199 220 306 466 563 643 477 456 410 296 245 233 184 251 208 176 175 122 119 125 105 73 53 55 64 66
58 41 39 52 56 51 71 50 7 127 239 290 336 302 441 370 384 532 537 607 610 347 234 231 216 225 173 192 191 189 168 99 68 55 64 65 74 141
61 44 38 61 62 71 47 -25 10 99 178 411 480 498 616 765 654 569 563 512 407 268 154 227 231 205 196 215 168 131 133 101 108 100 80 63 70 101
53 61 54 66 80 69 42 13 16 3 305 440 551 578 659 694 587 517 433 342 299 212 212 193 189 212 213 171 137 134 111 83 93 99 131 105 66 52
49 50 56 63 67 72 54 36 16 182 342 398 488 590 603 495 555 491 385 404 302 237 174 173 214 193 167 138 116 103 82 101 96 99 102 91 105 91
28 50 7 -13 -35 7 38 82 146 286 318 315 428 511 514 419 402 268 339 301 178 150 137 170 152 140 125 112 99 95 119 100 102 77 84 65 88 90
20 -18 -65 -68 -85 -47 -13 80 149 272 236 243 328 453 501 342 400 276 234 152 130 128 136 116 85 96 101 110 83 110 95 101 108 98 99 66 71 79
-18 -46 -67 -76 -64 -63 -61 -13 76 196 223 195 211 282 392 300 422 266 195 97 118 124 115 99 118 103 65 61 78 122 121 115 113 95 98 75 62 98
-26 -51 -58 -53 -54 -70 -77 -20 67 159 161 135 248 274 329 229 185 179 115 92 117 89 91 114 100 90 78 88 90 70 131 127 119 108 120 139 94 93
-10 -53 -28 -19 -37 -39 -53 -5 104 197 144 192 246 263 191 156 81 91 69 87 82 61 89 71 69 78 98 90 107 152 72 96 111 113 112 110 121 85
7 -23 -12 -19 -19 -38 -48 37 116 135 172 210 199 140 136 109 65 58 62 52 35 56 55 38 49 96 103 117 114 110 145 89 93 122 109 109 101 79
19 -10 4 4 -18 -37 -36 9 63 146 190 150 82 94 101 79 48 50 41 23 27 35 35 36 45 81 99 101 138 145 138 125 99 49 49 61 111 105
32 15 43 28 -7 -40 -40 -7 45 116 122 133 72 73 81 61 37 34 5 10 26 31 33 30 49 81 93 132 87 129 104 92 81 54 101 58 65 75

GFSNE_con_3kmhel_003.txt.gz
Helicity
126 134 158 187 218 234 270 279 270 314 260 206 221 241 272 263 266 281 237 188 149 167 178 186 165 223 314 267 205 190 172 180 178 160 138 111 137 175
145 147 148 158 172 204 247 295 332 355 360 278 253 321 378 303 230 264 295 280 222 189 198 238 191 277 354 264 235 211 196 189 161 142 105 125 168 192
186 182 179 166 170 171 173 204 263 319 334 319 343 285 354 289 270 267 346 361 312 192 258 227 224 299 336 270 236 213 193 167 147 121 123 152 205 190
195 194 188 186 182 166 172 176 195 242 285 273 277 274 318 367 278 290 315 329 354 298 208 269 272 378 274 233 219 212 196 148 152 134 147 208 221 192
93 108 118 119 123 133 144 152 158 150 175 223 236 271 283 444 412 364 346 345 400 393 334 363 292 347 284 209 193 199 159 148 147 143 180 235 194 173
100 102 89 93 107 116 130 132 140 142 131 138 177 213 302 538 480 409 426 375 431 421 431 266 343 299 223 217 168 131 103 130 155 151 220 207 163 134
33 32 57 76 85 91 129 124 143 162 157 138 131 130 164 368 396 358 441 453 386 495 517 474 469 489 311 198 176 121 134 150 166 194 219 161 131 103
13 28 44 35 45 84 92 80 107 136 134 140 127 113 111 148 213 355 460 605 376 441 536 611 515 479 298 240 138 120 123 164 188 200 172 143 108 84
54 57 56 54 67 74 71 86 85 71 78 106 107 87 95 90 139 208 268 494 453 647 275 505 449 393 291 150 115 92 119 157 180 156 123 95 80 79
84 73 75 85 87 80 79 73 50 62 71 89 109 78 66 122 131 192 333 583 761 467 589 434 387 368 202 161 59 88 134 158 139 113 85 84 78 61
80 75 80 74 76 94 69 71 63 47 65 81 57 46 26 62 108 379 383 605 600 595 524 396 384 373 231 146 116 108 129 123 96 70 85 86 68 60
103 61 64 60 67 86 78 87 89 62 62 60 20 18 21 43 96 246 310 488 638 634 425 438 413 352 215 144 154 177 166 75 80 96 84 64 75 127
91 47 43 68 74 103 97 121 107 85 70 41 5 38 147 155 269 378 398 396 618 487 444 474 377 197 184 139 172 190 183 175 160 125 103 91 99 122
82 39 48 72 75 91 88 62 66 73 26 22 5 110 159 202 171 292 369 488 464 370 294 389 227 158 184 186 182 176 157 136 109 101 94 105 115 124
43 50 64 68 39 55 58 76 46 5 6 7 30 75 137 175 293 362 424 440 426 341 247 156 117 146 153 164 164 164 160 119 121 104 105 124 129 129
28 44 43 45 41 34 15 1 6 -7 -32 -28 -11 99 186 237 311 321 322 311 277 276 176 118 110 137 129 123 139 149 103 114 127 137 115 85 71 70
24 -17 -13 5 26 25 11 -16 3 -15 -20 -27 51 108 188 249 295 288 205 151 122 77 92 85 79 88 101 105 122 88 77 91 99 111 92 67 65 69
-1 -32 -23 14 24 32 8 3 13 -39 16 10 25 105 187 241 262 202 143 85 55 69 61 57 97 105 101 64 42 73 87 104 112 82 89 81 63 101
-10 -38 -18 18 44 43 23 -5 -14 -14 29 29 57 145 202 169 158 133 87 62 62 67 74 87 89 96 106 87 74 77 95 88 87 90 103 117 83 97
-23 -40 0 34 64 55 49 5 -14 17 24 48 102 153 137 152 119 59 34 49 53 70 67 65 62 52 64 57 74 83 71 93 105 97 100 86 80 35
-30 -37 16 56 95 54 41 -4 -14 16 19 65 78 83 81 58 29 15 23 35 58 41 41 23 15 53 74 75 70 74 106 57 77 111 90 50 63 72
-17 -20 44 74 81 65 39 -2 -14 -8 23 35 87 76 31 -1 -1 18 40 39 9 13 14 15 38 70 69 77 80 80 89 85 50 -5 -3 51 93 63
-18 16 74 57 91 76 44 -3 -12 -6 33 64 90 38 0 -11 25 27 7 4 5 8 9 17 28 54 60 90 70 90 89 48 106 99 50 14 41 40

GFSNE_con_3kmhel_006.txt.gz
Helicity
147 140 156 161 178 166 164 171 182 199 202 197 252 251 294 324 278 255 252 197 215 170 153 76 80 103 84 70 97 115 138 249 216 169 172 170 151 135
184 201 196 186 180 174 177 175 168 176 174 190 207 203 246 312 261 243 227 145 184 168 169 133 138 122 112 130 120 178 322 302 244 206 187 161 152 150
156 149 161 162 160 149 140 138 137 133 142 89 131 139 199 251 250 288 254 243 250 155 87 170 193 142 124 199 266 323 328 263 213 193 170 172 154 159
100 120 122 115 118 94 68 70 81 91 103 102 66 98 132 173 256 296 344 351 361 218 111 148 198 153 168 259 405 378 346 225 207 185 179 186 148 120
101 99 97 83 61 59 81 98 84 84 94 112 91 78 94 128 173 257 270 309 334 269 207 148 151 206 217 314 355 515 420 372 286 198 163 159 133 103
102 89 58 34 35 50 72 83 91 104 103 108 109 86 66 62 129 145 191 230 252 321 204 175 159 153 258 375 421 471 424 365 220 166 150 149 154 115
108 94 48 36 28 40 74 70 98 86 65 73 73 60 116 90 59 99 180 199 249 238 296 202 278 381 424 413 456 562 309 373 232 152 104 112 133 105
141 91 54 27 23 104 104 102 111 112 93 81 86 92 79 88 58 80 86 141 188 377 337 313 453 568 625 582 523 592 363 285 192 136 92 109 101 93
172 127 102 79 69 70 86 79 80 77 83 107 101 88 83 99 104 80 57 89 159 349 284 340 481 547 603 702 515 442 293 189 144 110 84 82 97 127
113 68 96 112 51 93 89 67 64 67 50 67 87 95 105 113 118 97 79 85 215 478 477 428 419 464 709 517 481 298 207 158 98 61 49 88 125 129
108 125 144 136 67 97 69 53 76 96 57 48 44 64 74 66 86 128 121 136 182 322 502 473 524 618 531 474 388 207 163 70 38 54 80 107 116 113
112 105 114 120 102 82 69 69 75 54 24 3 -7 18 57 81 92 106 90 138 178 207 338 537 542 538 360 396 317 263 102 29 45 62 79 83 113 162
84 78 63 21 47 61 71 80 46 48 34 4 21 16 19 28 59 69 66 67 173 323 283 460 484 505 465 365 271 157 97 130 155 107 87 114 90 99
82 56 47 38 56 55 51 65 78 47 28 29 55 17 4 13 58 34 57 119 207 189 215 357 389 557 490 346 238 178 164 168 191 226 203 156 100 72
51 38 30 41 38 33 52 82 66 32 33 44 33 6 17 1 49 45 148 254 336 384 419 338 314 358 243 158 136 161 207 152 154 154 131 124 124 139
16 3 18 23 23 29 29 39 30 27 29 18 -7 -31 -9 -28 17 69 171 209 292 316 257 194 209 167 126 143 151 176 179 157 135 118 121 120 124 123
-12 7 4 -21 -17 1 30 19 9 36 -14 -10 -47 -45 -32 11 60 133 171 147 135 122 137 139 121 120 120 104 141 122 127 120 108 152 132 107 90 89
-24 3 -22 -27 -19 -2 11 30 22 22 -29 -39 -51 -29 -21 25 84 143 114 71 66 52 51 43 67 95 107 108 80 114 99 98 109 106 98 98 61 74
-31 -10 -44 -36 -10 -1 -9 11 16 10 -28 -54 -40 -10 -2 56 109 151 98 48 32 50 44 54 59 78 113 113 69 44 91 91 92 86 83 90 80 110
-18 -48 -37 -16 -10 3 -5 18 27 -1 -41 -47 -24 -19 11 70 133 75 52 47 42 37 43 54 59 60 72 57 54 47 12 60 65 78 95 97 81 57
-61 -32 -14 -7 -3 -5 26 26 25 1 -35 -24 -8 5 69 134 102 57 40 17 31 21 38 40 19 31 42 58 76 69 55 35 52 97 79 66 68 84
-71 -24 -3 -16 -13 13 43 33 25 -1 -10 30 64 130 167 147 87 49 38 8 -12 5 12 0 18 41 48 53 50 57 78 63 1 -15 21 62 76 83
-43 -19 0 1 7 47 66 40 25 11 19 91 152 166 142 70 24 -17 -22 -23 -11 10 11 15 16 29 32 41 37 58 62 70 65 56 51 14 19 -13

GFSNE_con_3kmhel_009.txt.gz
Helicity
159 171 181 168 167 171 183 194 189 173 107 87 107 106 125 140 166 187 191 173 193 177 132 114 124 117 123 155 130 149 133 109 86 106 141 237 248 159
118 135 142 142 132 100 81 89 105 130 132 79 72 70 80 97 113 165 192 188 167 182 173 167 145 116 163 122 133 144 188 164 99 143 190 218 222 185
78 93 110 116 116 108 98 83 70 58 113 62 79 71 77 86 86 127 173 191 176 133 145 161 176 186 146 152 128 145 158 153 123 161 224 273 261 209
68 88 95 99 107 87 66 60 62 73 87 103 44 30 37 54 78 89 111 126 173 136 120 136 157 190 191 149 177 142 137 161 158 235 309 332 326 252
81 100 103 111 89 71 56 35 30 48 75 102 116 91 53 56 53 78 114 121 123 109 123 131 128 129 101 92 64 105 156 181 304 332 460 450 442 247
100 122 126 109 101 82 61 68 40 49 43 70 84 77 59 36 69 50 24 81 83 120 118 115 125 117 93 52 60 58 147 190 495 456 572 587 538 401
99 96 88 77 69 55 108 77 60 53 48 29 36 41 36 2 18 30 52 33 31 54 101 75 142 138 167 116 16 85 232 307 323 553 715 537 467 401
65 49 51 40 29 59 96 89 80 97 72 44 22 20 23 32 20 25 36 26 4 39 93 53 120 166 155 162 132 148 234 458 672 611 553 679 425 365
77 69 61 67 85 86 79 75 82 76 83 62 35 28 37 67 59 44 47 66 70 53 47 45 106 150 160 210 142 240 346 663 703 666 529 355 272 237
119 117 124 110 107 115 92 81 56 27 52 71 54 48 40 31 53 72 79 104 83 77 133 65 94 173 272 275 207 353 570 745 679 485 302 231 275 191
117 114 87 72 50 64 59 62 48 57 43 37 31 22 30 54 45 65 87 104 87 58 95 126 146 275 296 322 318 429 590 532 367 309 301 257 164 98
121 63 41 46 36 34 47 62 91 71 42 -29 -47 -33 -10 25 42 62 74 78 87 4 115 245 249 316 196 299 426 495 532 371 388 219 169 109 75 162
81 68 59 23 21 29 20 33 41 37 15 -7 -28 -54 -33 6 51 64 88 105 80 48 36 202 261 346 365 273 387 512 469 370 272 171 62 49 71 146
91 78 49 15 13 9 24 30 38 35 23 8 -44 -67 -34 1 24 43 69 38 -2 -45 -23 185 158 421 441 386 308 415 421 325 222 172 152 90 39 99
110 48 11 -8 3 9 3 29 33 32 23 -34 -43 -34 -9 -1 -7 -10 -27 -47 32 141 198 268 236 328 342 353 358 412 339 204 164 189 200 175 170 183
100 28 -21 -20 21 -7 -14 2 8 3 -33 -49 -40 -28 -64 -75 -67 -79 -87 -24 117 201 241 279 290 278 263 210 183 208 155 144 139 152 180 185 152 119
35 11 -50 10 11 -5 -16 -11 14 13 -33 -50 -31 -60 -110 -87 -72 -85 -42 59 152 156 110 119 188 179 150 90 130 156 135 117 115 160 159 138 97 102
77 13 -1 22 -38 -47 -23 12 41 22 -27 -10 -23 -77 -90 -77 -52 -38 -30 83 74 54 35 86 97 106 126 172 118 87 99 119 125 133 136 129 122 112
84 51 62 -27 -58 -33 3 15 34 35 11 -24 -51 -98 -78 -40 -19 -9 58 95 67 35 55 71 86 54 67 83 74 79 93 93 109 107 108 127 133 106
68 48 -85 -67 -45 3 22 33 71 43 -11 -28 -46 -55 -21 -3 18 56 95 83 55 41 41 40 41 60 51 60 60 45 51 89 105 111 99 84 73 83
-22 -19 -79 -41 -2 23 31 73 62 32 -24 12 11 29 48 67 95 70 60 27 37 20 2 14 43 48 34 52 79 80 69 36 58 86 95 105 106 103
-86 -73 -43 -1 18 29 60 87 57 20 19 84 76 76 99 95 59 36 52 41 -8 -25 -1 4 9 31 50 65 60 52 52 53 29 13 28 59 99 89
-47 -40 -6 21 27 66 89 90 45 33 95 140 94 117 122 111 61 -13 -27 -16 -21 -11 -6 -0 5 17 19 25 37 49 55 62 70 67 61 45 21 97

GFSNE_con_3kmhel_012.txt.gz
Helicity
89 100 118 115 134 156 171 189 237 206 121 54 72 74 82 71 62 67 62 48 43 41 58 105 124 131 134 168 122 145 87 83 93 119 132 109 120 137
75 78 80 95 109 133 160 177 174 182 184 106 37 38 29 49 46 43 35 32 49 58 65 59 64 101 132 127 163 164 136 117 114 113 117 129 130 146
56 62 70 85 97 119 130 131 129 127 136 118 92 39 38 17 13 32 48 41 39 33 72 75 77 62 75 112 108 102 110 104 128 138 96 122 166 171
37 37 44 52 73 71 79 74 75 64 88 62 35 11 20 36 35 31 23 23 39 45 18 47 75 100 84 80 91 110 112 55 99 95 97 108 186 205
53 59 62 46 50 42 50 57 30 76 47 51 64 27 34 18 17 48 38 22 28 66 92 91 69 93 120 93 101 74 82 110 97 84 159 94 196 273
102 71 47 44 41 49 25 34 48 44 9 -10 3 22 -5 -32 8 -1 -32 10 -1 33 56 76 49 69 47 55 61 56 34 84 63 68 63 117 140 281
106 74 58 47 51 70 79 60 66 69 56 62 57 21 33 25 15 -33 -7 -8 21 16 9 59 49 57 71 75 63 62 84 58 93 50 107 88 137 291
107 78 70 58 54 86 74 88 88 99 93 87 96 95 91 85 59 42 5 -11 -54 -11 -15 8 -6 -1 -21 -2 8 30 88 77 49 81 41 106 296 521
104 105 104 106 85 43 19 29 40 47 47 66 106 113 98 103 89 47 43 44 38 32 26 37 43 39 37 32 44 96 100 105 82 63 92 229 633 1024
110 111 123 91 53 48 40 37 22 24 62 85 97 123 112 86 46 15 37 17 9 21 41 53 29 33 30 70 52 64 56 67 75 60 280 598 726 689
112 118 92 85 54 38 50 35 33 39 9 6 15 23 13 -5 19 30 32 8 -12 -55 -26 22 45 30 100 99 85 38 22 32 190 481 606 687 714 718
133 100 57 81 33 36 36 49 29 3 12 9 -7 -2 25 32 6 17 51 23 -4 -75 1 2 -13 23 -33 -3 -0 37 69 262 397 428 574 530 489 476
121 127 145 63 46 32 18 74 37 -33 -34 -21 -11 18 28 32 24 15 44 41 8 -20 -4 7 -0 7 61 60 48 203 324 363 479 544 502 337 269 301
109 147 165 139 62 19 61 -23 -18 -13 -24 -9 -13 -4 -20 -26 -25 -9 -14 11 27 -57 -30 -21 -18 -21 64 86 112 288 508 572 522 453 299 182 190 182
114 115 91 72 25 53 34 2 -5 52 -34 -12 -5 -19 -38 -30 -31 -22 -33 -47 -92 -102 -57 -73 -57 70 143 84 136 243 449 445 420 371 288 232 190 158
114 140 107 58 41 51 76 97 108 -24 -23 -4 -13 -12 -23 -43 -28 -52 -84 -72 -97 -113 -62 34 73 91 121 133 178 304 371 392 359 321 271 252 248 257
98 128 117 82 82 101 111 105 26 39 36 22 -14 -25 -21 -55 -83 -71 -59 -69 -73 -56 10 77 126 156 150 190 232 298 348 242 199 196 228 232 213 170
91 125 125 91 105 112 4 52 74 88 64 24 -3 -23 -20 -70 -47 -26 -32 -30 -29 39 55 59 83 100 125 157 111 104 121 106 136 169 164 151 109 132
85 108 74 92 25 19 51 70 126 123 79 23 -2 -12 14 -14 11 22 -2 -1 38 50 51 53 77 74 81 59 61 65 69 41 77 90 104 118 106 92
73 83 -8 8 24 57 83 109 149 119 55 14 21 90 50 44 49 33 22 40 36 39 38 82 100 77 38 24 -4 24 52 63 82 109 120 152 168 135
93 6 13 36 60 97 114 151 148 100 25 76 148 142 71 57 49 48 23 19 41 58 31 -4 2 39 29 35 67 66 76 81 85 91 101 123 112 92
43 37 55 63 99 123 151 161 130 83 139 182 213 131 82 67 57 45 38 6 -19 -38 -28 -0 17 25 30 37 57 60 64 71 81 74 84 82 78 75
37 58 70 98 129 145 160 151 96 174 209 218 220 121 99 69 26 2 -6 -7 -10 -15 -15 -9 -2 10 28 40 47 46 51 57 58 59 54 53 89 114

GFSNE_con_3kmhel_015.txt.gz
Helicity
56 61 52 50 53 70 91 113 136 162 105 63 65 48 78 57 38 40 30 33 74 96 92 100 88 65 50 54 61 67 66 63 116 142 124 158 119 109
64 60 61 69 85 89 115 123 156 177 165 113 57 83 124 54 14 17 33 45 46 50 60 64 84 81 77 80 72 88 96 73 51 98 151 160 117 96
59 59 78 94 106 96 101 113 125 129 145 126 100 100 76 19 -2 24 40 50 52 68 81 109 116 92 104 90 89 81 90 104 63 51 118 132 171 113
107 94 103 96 83 76 73 53 48 16 55 54 82 52 25 -12 -16 -20 -1 29 62 49 49 84 118 106 82 100 112 95 107 106 103 86 80 48 65 86
128 131 117 109 101 95 82 69 62 70 56 76 87 47 9 -4 -14 -13 -14 23 41 39 57 62 102 133 96 62 82 101 107 92 103 79 79 79 50 3
123 116 109 96 87 84 79 81 80 62 52 56 72 60 36 17 17 13 -1 27 30 23 10 46 94 120 153 121 93 82 83 96 83 89 65 83 59 36
126 116 109 99 87 100 123 107 96 105 113 101 96 84 71 50 69 68 63 69 54 52 30 66 75 106 118 99 119 117 57 54 68 90 116 82 98 96
114 104 114 99 90 70 52 40 57 89 92 93 72 71 60 71 92 63 136 111 124 31 42 72 82 123 102 111 30 28 43 52 94 113 123 87 73 55
103 112 120 98 69 71 51 46 68 44 57 97 105 107 55 40 33 24 105 51 -8 25 17 28 53 85 122 114 118 132 86 109 133 124 110 88 82 90
102 92 79 82 74 62 66 104 77 80 89 96 95 100 97 36 15 10 -22 -24 1 14 15 -5 27 9 46 73 97 117 97 94 100 98 103 73 88 72
102 86 71 82 57 16 63 100 77 104 84 36 32 23 8 7 -8 -15 -2 -9 -18 -5 10 4 29 29 25 53 65 87 101 121 116 87 95 73 81 143
93 76 57 56 33 66 104 87 99 100 87 55 46 37 31 7 10 -12 -13 -15 -32 -16 1 6 -17 -33 -51 -28 15 45 68 119 111 78 57 237 407 559
108 104 114 43 64 87 42 82 90 59 49 75 51 22 7 -4 -26 -33 -32 -28 -4 6 -3 -12 2 10 -5 22 22 53 53 170 146 226 311 467 563 766
107 128 122 57 38 44 42 20 11 26 93 96 -31 -13 -23 -23 -27 -25 -28 -3 45 2 -6 27 22 4 4 12 27 39 78 373 320 358 478 527 563 540
127 104 65 37 39 70 23 4 21 104 98 -4 2 6 -17 -10 -1 -21 -26 18 -19 -19 -16 15 -6 11 2 11 42 53 132 425 478 459 437 393 358 317
115 113 82 58 60 54 62 85 107 48 -8 12 7 11 -10 -29 -57 -45 -30 -37 -25 -26 -57 -29 -14 -19 -6 27 53 71 129 260 374 425 419 309 269 277
86 123 116 85 78 76 95 106 53 43 38 30 15 -16 -37 -48 -4 21 16 16 3 -11 -22 -14 28 61 53 58 78 115 163 295 338 333 362 349 324 225
108 113 91 81 87 70 60 80 97 89 57 67 8 -7 29 65 100 80 37 19 4 -0 18 26 36 62 58 135 165 167 236 289 307 301 308 287 270 278
106 101 91 25 68 76 84 102 137 135 115 64 95 120 133 160 139 101 61 27 18 23 36 39 51 76 76 77 150 188 194 219 212 255 204 177 203 191
97 94 50 80 85 87 112 143 165 134 121 165 154 179 216 168 112 55 26 40 51 46 84 110 112 98 45 49 22 104 85 68 100 120 137 134 87 39
93 62 83 93 95 114 156 183 149 182 189 195 197 213 165 79 57 54 67 71 96 111 113 80 55 48 25 35 -1 27 89 52 43 66 91 102 101 97
92 84 100 102 121 149 192 168 223 252 255 241 241 230 149 116 77 60 46 33 23 23 22 27 34 11 7 16 35 39 68 125 114 115 116 87 76 58
81 103 115 128 152 182 184 236 250 301 291 257 215 147 74 54 47 38 25 16 12 2 -5 -8 5 21 34 38 39 46 54 60 65 87 112 122 125 45

GFSNE_con_3kmhel_018.txt.gz
Helicity
72 83 100 107 125 138 174 202 220 252 228 162 132 102 113 124 92 139 172 97 68 69 70 71 87 98 98 82 88 67 76 61 59 61 50 -83 -87 37
100 109 124 135 164 177 185 181 191 233 269 218 158 108 99 78 133 127 113 50 22 40 76 68 58 90 93 93 80 70 100 79 69 102 75 22 21 12
112 128 127 132 165 168 170 167 174 165 213 200 153 110 81 71 73 54 31 17 12 -17 42 67 91 86 96 88 89 74 85 112 123 90 84 79 33 7
115 128 135 168 156 157 164 159 161 147 177 192 143 136 101 84 79 72 57 50 19 -11 -10 30 56 72 94 122 100 100 81 85 111 138 94 84 122 69
137 148 150 150 150 158 158 163 163 170 160 156 162 148 140 122 102 94 83 61 17 -1 12 22 24 45 63 102 123 117 90 69 73 121 138 107 100 101
148 152 151 147 156 151 149 144 137 129 123 138 144 129 117 95 110 112 69 45 44 32 35 51 37 51 69 150 124 144 117 112 132 102 119 110 122 103
148 143 136 127 93 96 140 111 111 115 127 122 127 109 94 109 106 98 88 47 9 12 -0 41 47 65 104 150 106 102 110 114 112 181 153 118 127 129
149 131 116 95 98 81 60 56 54 90 104 120 146 112 105 132 113 113 105 74 23 12 9 12 6 31 56 101 120 101 124 155 142 118 134 124 111 98
136 119 115 114 96 98 71 50 53 56 66 120 134 118 122 115 112 104 89 52 -27 -21 -7 -16 42 20 45 43 74 103 185 221 178 124 104 77 107 102
117 110 107 95 94 87 84 85 103 96 108 103 103 113 117 115 82 64 23 -40 -26 -17 -0 -10 -4 -10 6 30 84 128 169 215 175 96 81 83 87 72
114 105 95 94 64 44 71 105 99 83 50 25 34 18 20 8 31 47 -19 -66 -32 -47 -16 -38 -31 -29 -9 -2 77 125 131 133 126 130 122 94 89 87
108 104 83 83 45 43 79 80 83 66 68 48 50 48 38 39 10 35 -12 -57 -57 -29 1 -38 -29 -12 -24 14 40 71 93 161 169 196 162 111 85 96
144 140 133 61 49 35 29 73 89 58 38 62 72 76 71 65 34 -0 -51 -65 -56 -18 -52 -39 -21 1 21 77 67 59 95 153 166 152 116 87 91 176
133 146 124 62 36 33 46 42 15 22 78 90 77 27 -31 -44 -53 -50 -36 -25 -31 -6 -5 6 -37 -6 16 31 71 76 91 130 203 257 289 281 333 271
142 108 69 51 45 53 35 13 20 73 32 9 5 -0 -10 -18 -3 -17 -26 -8 -1 25 7 -13 -23 -3 6 40 69 65 85 127 271 364 408 455 463 491
121 133 79 68 50 38 41 49 25 -14 -14 3 10 -1 15 9 7 5 -14 11 25 21 -34 76 10 -1 9 23 43 82 78 117 258 236 324 424 463 588
111 109 112 88 77 61 45 9 16 22 20 -10 -6 27 63 58 65 50 68 90 32 -5 -30 -31 -24 -2 45 40 56 61 80 121 251 313 376 346 297 333
109 111 94 83 30 15 23 49 77 66 24 40 89 95 101 121 159 178 114 58 20 8 8 7 24 46 24 47 144 101 132 203 242 245 204 226 272 282
99 99 83 31 19 28 56 90 104 81 119 130 140 123 138 162 158 97 53 43 38 43 58 54 70 66 61 94 159 242 185 262 254 276 236 216 261 301
92 80 25 20 30 60 104 110 112 169 172 185 161 173 166 185 119 89 73 70 96 121 118 109 73 51 33 83 174 215 208 208 235 229 221 266 288 331
79 21 26 32 62 104 124 145 189 207 185 196 197 185 181 132 124 129 132 137 127 116 114 105 103 105 91 67 29 131 161 170 172 160 184 222 221 251
13 49 52 64 105 126 162 209 226 228 225 200 176 147 119 80 74 65 55 55 42 43 45 40 30 33 32 -2 17 39 69 83 96 89 98 83 66 66
35 57 86 111 125 167 216 217 217 217 186 166 142 119 91 84 65 59 44 34 24 15 9 -1 2 11 23 22 36 56 78 89 81 86 106 87 52 55

GFSNE_con_3kmhel_021.txt.gz
Helicity
110 113 124 144 154 180 217 246 271 218 203 191 178 154 135 146 83 141 102 119 122 165 113 73 35 61 79 114 112 140 142 100 57 127 103 78 32 -65
111 122 134 155 174 190 228 252 271 278 278 233 189 151 119 130 110 94 96 91 69 67 60 64 70 49 80 116 124 112 109 124 106 71 115 109 70 18
111 131 144 144 190 218 253 241 246 234 259 230 192 159 116 95 100 109 95 97 97 52 46 43 46 38 42 81 93 100 97 97 91 99 125 166 156 89
122 137 149 187 190 213 218 208 221 215 198 182 160 131 120 110 104 95 75 78 90 51 33 42 26 11 13 40 86 131 103 97 119 97 77 98 107 123
134 155 159 173 193 201 205 221 196 181 173 163 169 155 148 138 103 83 48 35 108 79 55 52 49 36 10 26 54 92 118 111 94 61 81 120 101 90
143 145 137 169 170 188 169 163 165 164 151 163 178 171 151 129 112 82 22 91 103 73 67 50 24 28 27 11 27 89 136 127 147 157 131 127 146 90
112 105 140 137 100 97 161 169 145 162 161 161 157 152 138 94 78 87 126 110 109 97 82 84 62 67 50 30 13 34 68 127 133 123 113 122 147 206
85 114 141 123 126 107 110 72 90 130 129 153 197 189 132 125 113 127 132 138 93 98 74 63 78 64 41 41 16 32 53 89 136 126 80 81 120 151
103 139 149 162 136 144 94 77 100 74 37 107 134 149 127 93 115 126 132 136 121 105 102 24 64 70 28 3 7 50 65 86 109 121 89 90 84 100
118 135 145 148 129 108 122 131 119 108 95 127 148 146 119 120 122 116 96 53 101 133 109 -9 39 -49 -28 -35 -5 20 55 111 143 180 172 87 69 77
133 145 125 124 95 83 114 124 105 105 87 64 53 26 11 10 33 55 28 -13 7 -5 101 -66 -52 -72 -89 -52 2 55 71 139 195 163 152 108 87 90
151 136 90 106 80 67 101 107 109 106 102 59 65 63 60 59 18 14 -31 -48 -24 8 -37 -68 -58 -72 1 15 5 10 -43 48 109 145 96 57 40 18
164 151 147 82 59 62 46 104 99 74 47 78 42 32 50 33 10 -11 -36 -69 -56 -19 -44 -73 -50 -31 -0 46 59 69 66 82 113 123 122 79 35 17
156 152 148 70 74 51 73 36 13 20 55 -6 26 43 7 -4 -9 -22 -0 13 15 -2 3 4 -2 9 27 31 83 88 94 132 146 116 167 126 -2 -9
138 106 82 58 56 80 36 10 -21 -26 2 49 40 27 88 70 60 58 62 59 52 67 71 97 69 17 -31 21 69 110 111 131 105 128 234 316 356 285
110 115 74 63 59 44 54 25 -4 24 45 9 -28 8 53 59 81 92 117 145 121 121 -9 -50 -42 -42 -18 17 75 107 147 115 117 159 191 367 444 442
85 97 102 90 85 47 16 23 71 88 -11 5 41 72 93 99 120 143 190 100 29 -22 -29 -31 -23 -13 -19 15 53 73 84 93 123 152 221 320 493 570
87 98 105 38 -1 10 37 87 103 18 67 95 126 140 149 146 182 197 103 80 44 37 41 21 11 5 5 32 102 109 120 133 168 177 208 238 314 356
95 54 -10 -4 20 47 85 64 77 123 151 154 168 160 163 171 151 123 87 72 85 102 113 111 68 51 48 51 139 222 165 212 191 255 244 229 235 267
61 3 10 23 49 84 93 104 145 175 173 171 152 164 162 165 148 95 96 112 114 102 106 97 92 109 100 112 174 206 168 193 176 214 238 269 283 272
14 25 26 47 92 95 134 154 168 179 152 174 184 172 147 124 99 89 91 96 94 108 111 85 109 112 153 168 169 239 192 181 201 221 241 311 363 373
12 42 62 90 91 148 167 178 172 170 162 157 151 153 146 107 91 87 83 84 76 49 43 47 63 95 66 39 120 188 212 213 230 195 209 219 277 337
43 66 94 95 148 175 177 158 161 182 175 168 172 155 93 71 82 89 80 71 65 17 4 -17 2 6 17 7 49 86 103 118 113 117 120 79 73 130

GFSNE_con_3kmhel_024.txt.gz
Helicity
132 132 142 147 156 160 176 182 193 191 200 185 175 144 172 129 122 132 109 48 66 38 57 51 79 89 80 88 75 88 117 122 168 209 187 106 89 114
132 135 135 145 150 162 178 191 225 245 227 200 191 179 146 147 132 103 96 71 52 42 47 45 59 73 60 67 70 69 66 93 110 120 122 122 138 103
129 136 139 136 154 172 178 200 217 238 270 232 201 164 142 111 104 84 118 118 124 34 42 29 18 33 47 50 46 54 53 64 96 119 118 115 117 135
139 138 136 149 143 149 184 183 216 218 227 204 198 181 147 113 107 105 119 120 133 83 13 27 29 56 45 51 53 49 44 56 84 109 118 112 127 106
139 137 127 121 123 151 165 189 193 194 203 216 229 207 177 163 162 155 111 112 96 85 21 31 32 57 42 41 44 45 42 39 71 68 83 88 111 103
130 120 105 109 127 130 145 153 174 205 205 216 227 229 178 170 137 168 108 91 65 36 69 47 31 32 28 44 50 48 58 62 58 65 126 158 99 157
125 106 109 101 62 83 149 169 178 179 186 204 197 210 170 129 132 124 121 48 46 83 93 108 74 78 81 54 53 45 54 67 67 47 67 112 89 121
122 112 117 100 108 108 116 77 84 133 156 173 163 154 114 128 132 164 139 102 68 87 102 94 92 105 106 99 31 20 43 59 84 68 49 94 94 99
116 126 133 144 125 134 95 73 121 70 73 129 147 150 140 137 128 139 133 142 130 92 80 39 86 114 112 79 31 39 37 42 60 70 73 57 81 95
137 135 132 137 115 89 100 127 138 130 127 126 137 131 121 97 85 62 35 -34 49 145 137 62 16 79 13 -14 -41 -17 -3 32 64 59 82 72 78 98
144 140 133 118 74 46 78 103 128 141 88 60 36 30 25 17 9 -21 36 10 10 15 122 20 -30 -15 -21 -14 61 37 30 45 57 67 64 97 115 90
151 148 88 92 48 24 79 103 108 101 98 74 83 78 65 82 29 38 -11 -32 -13 -10 67 -11 -19 -28 8 39 9 11 42 33 34 19 24 58 67 9
160 148 132 55 33 38 33 87 85 54 40 26 46 125 132 126 110 104 81 50 39 52 119 6 4 26 56 45 101 118 100 75 39 29 51 52 87 83
129 140 140 40 36 29 44 18 -2 -40 -49 114 141 123 71 100 103 107 128 144 168 172 172 138 105 112 98 118 159 131 94 80 88 82 39 -37 13 39
125 95 48 49 34 56 23 -2 -15 53 116 112 95 92 97 124 143 147 156 161 153 160 107 83 59 19 13 41 83 121 101 108 169 173 67 90 97 43
100 110 84 60 41 46 30 40 101 89 32 73 103 129 134 144 150 146 173 156 160 99 90 55 -19 -11 16 44 91 175 128 108 149 100 134 222 274 189
68 111 91 90 71 42 69 116 89 100 113 120 120 146 146 143 147 149 146 103 69 61 92 92 49 36 35 51 80 102 104 115 106 138 191 238 342 267
89 63 64 18 34 64 84 94 161 145 139 135 153 157 159 158 150 141 134 112 123 136 113 95 51 59 26 44 102 147 140 143 139 193 203 228 315 361
60 37 28 36 71 98 112 161 186 159 147 164 172 172 180 191 163 185 181 143 138 132 93 72 85 79 102 112 178 165 150 166 128 180 200 187 211 261
65 9 34 72 95 131 181 171 162 159 159 167 162 185 192 203 195 148 130 127 124 112 107 61 102 144 145 170 238 187 131 189 152 152 185 205 183 175
8 39 74 103 125 184 181 155 149 151 110 131 155 158 157 145 107 98 111 78 76 109 79 68 108 83 120 165 185 231 207 183 204 216 227 245 279 266
41 79 102 105 180 190 165 161 171 149 144 148 153 156 141 88 63 86 82 77 83 51 56 89 89 101 125 147 171 187 196 191 239 276 238 211 232 254
89 103 119 178 201 185 179 170 144 135 158 164 177 195 115 72 53 63 63 41 33 -7 -27 11 36 68 107 130 112 127 149 171 181 213 190 241 291 213

GFSNE_con_3kmhel_027.txt.gz
Helicity
118 133 140 129 150 163 188 197 228 230 209 160 143 120 138 140 118 112 128 79 60 55 66 80 66 90 131 146 141 142 153 165 123 114 85 109 140 137
134 143 144 142 163 163 181 197 203 220 245 167 143 142 143 150 130 108 119 47 42 45 47 53 58 55 91 83 94 78 64 64 53 56 39 45 64 91
127 157 146 143 161 170 171 182 197 215 224 185 175 153 138 145 154 120 90 112 131 37 40 34 64 43 52 52 44 51 70 88 87 67 35 37 59 71
139 153 155 157 159 157 174 175 192 192 203 180 185 176 160 160 138 98 74 96 123 86 75 42 39 30 19 28 43 71 72 71 74 71 93 115 102 70
146 154 152 149 147 158 166 171 168 160 170 195 205 215 211 159 131 111 133 107 110 38 57 42 17 23 24 30 51 76 76 72 76 67 66 69 70 52
147 152 141 139 142 144 150 151 160 163 167 192 218 211 190 164 164 134 104 112 110 119 97 63 16 6 12 39 47 45 45 50 52 47 56 76 48 34
152 153 142 107 92 105 134 141 132 148 178 179 171 183 174 109 100 119 141 148 142 143 138 138 84 124 128 54 37 26 31 34 38 19 37 64 66 33
164 156 160 99 87 61 72 60 67 130 123 166 189 154 130 131 127 175 194 162 98 102 127 126 139 132 111 101 27 15 25 45 63 38 53 47 63 69
168 164 154 130 94 123 78 46 79 64 45 97 115 130 119 134 157 133 106 121 138 155 98 88 153 137 117 126 23 -5 -25 17 46 58 57 77 76 65
170 163 129 126 111 80 94 104 142 103 107 112 126 126 133 96 54 29 -33 -24 122 149 151 73 137 47 64 71 34 16 5 -24 -5 59 79 70 40 46
169 153 120 111 71 32 74 101 88 101 55 42 27 24 11 30 53 4 93 -68 12 131 153 41 77 75 55 74 153 83 11 12 3 -6 96 87 62 37
154 114 73 81 30 31 68 92 94 61 72 46 48 54 78 88 33 26 6 21 50 93 184 46 73 52 10 116 116 117 108 103 61 14 -0 8 -0 -25
143 144 137 48 41 37 11 57 44 -38 -64 75 127 137 103 83 77 79 102 117 152 201 218 66 118 122 119 136 184 137 126 116 80 55 30 20 16 7
133 144 135 54 20 -9 24 5 -8 -12 107 107 87 88 100 132 145 158 172 186 199 215 200 107 111 86 117 166 140 75 87 127 95 89 72 74 56 58
127 87 73 47 38 45 9 -2 -13 31 98 102 103 124 135 167 187 205 197 194 199 183 88 120 173 148 75 153 144 128 114 102 97 130 148 82 52 49
81 106 64 55 29 14 44 46 54 90 59 80 124 168 184 191 185 166 170 171 164 155 114 106 83 113 115 122 120 164 162 155 200 180 148 221 125 72
68 94 92 61 31 73 66 81 103 99 98 120 146 184 201 197 190 169 192 174 163 151 167 91 63 76 99 129 134 235 233 197 183 194 205 181 193 164
87 100 7 20 63 39 78 121 124 115 134 139 166 175 175 165 182 188 166 166 162 156 179 126 117 133 95 108 248 305 196 191 212 236 310 201 203 230
89 -20 25 65 62 107 132 128 151 150 140 143 168 147 147 156 118 142 142 129 153 143 134 124 149 167 174 186 256 168 152 201 172 176 205 208 227 241
16 19 74 71 116 142 148 152 158 154 140 165 135 137 138 142 146 112 103 125 129 90 92 110 128 136 166 221 291 277 178 162 176 119 140 168 180 216
35 74 75 114 149 160 167 166 156 156 112 124 158 141 132 123 147 87 74 60 56 87 60 100 150 105 141 160 188 217 210 158 117 175 168 191 246 243
68 78 111 136 163 181 181 174 172 164 167 170 184 195 186 133 98 72 64 70 50 54 60 89 109 137 129 106 120 147 189 162 154 133 154 174 196 224
92 120 147 165 183 184 176 167 160 177 180 190 203 191 185 212 74 36 42 39 26 12 15 46 74 95 113 76 81 124 175 206 185 191 183 181 205 219

GFSNE_con_3kmhel_030.txt.gz
Helicity
109 129 141 144 162 178 213 235 269 260 238 230 192 153 144 138 109 90 116 90 69 93 103 103 104 114 100 106 119 130 77 194 205 240 203 137 162 158
114 130 143 164 178 181 197 218 240 272 326 212 163 141 132 141 105 99 135 68 74 56 61 86 88 90 69 80 79 51 59 83 140 123 111 68 66 89
123 139 155 156 166 179 190 208 225 224 253 205 176 145 132 123 141 139 112 118 98 19 41 44 51 65 73 88 93 106 127 99 98 97 68 74 65 62
148 157 160 158 163 161 185 192 205 200 209 181 173 156 154 148 114 100 98 98 121 73 20 30 37 43 51 60 69 82 81 77 70 85 105 113 87 68
149 161 156 170 171 171 184 185 178 175 181 194 211 207 195 147 144 125 91 69 73 38 37 17 14 20 23 28 28 43 48 50 85 103 103 92 92 91
158 172 181 180 164 156 156 155 172 170 169 195 215 179 189 140 149 80 32 53 122 143 93 55 34 33 18 21 32 45 52 52 56 60 55 50 51 54
182 187 172 140 112 131 156 167 148 151 175 163 167 189 186 63 66 87 135 148 145 115 149 199 126 128 134 57 41 30 29 30 35 40 36 22 16 19
166 162 171 128 121 106 99 72 77 125 113 170 152 123 108 125 128 172 162 115 7 125 132 141 145 134 132 137 22 -17 2 6 19 25 30 29 30 42
165 176 178 168 126 123 81 55 82 68 115 129 110 131 108 127 94 99 117 152 157 96 114 109 136 106 159 124 21 3 -5 -9 -9 -2 25 32 28 44
169 176 173 130 110 88 103 137 152 98 88 105 118 94 97 85 62 42 21 69 177 197 138 83 174 142 144 144 90 66 36 7 3 -0 36 18 38 49
157 172 114 103 68 39 96 105 96 98 79 38 46 42 43 36 22 -4 28 37 110 166 136 124 178 159 130 184 158 104 43 3 1 -8 -12 34 72 77
157 110 64 73 41 51 78 89 82 31 82 98 86 65 63 77 31 45 107 141 169 223 191 163 198 188 200 243 147 147 84 52 7 -0 8 4 -29 133
139 135 116 48 42 28 27 76 53 43 56 38 92 90 98 115 132 139 157 164 183 235 195 107 211 218 218 251 250 192 148 128 79 84 78 54 31 2
143 131 116 46 28 27 30 9 -2 -28 69 72 67 98 118 153 161 151 154 170 186 194 189 163 219 207 168 220 277 161 129 135 142 157 115 89 56 36
135 87 63 50 34 33 18 -2 -21 29 43 73 92 125 134 166 189 197 195 190 197 200 196 131 148 138 116 179 233 231 174 183 153 141 199 188 141 43
89 106 74 52 -20 37 52 24 55 48 27 66 88 122 126 125 134 149 184 184 197 197 155 125 131 140 137 152 197 264 251 180 248 241 288 242 121 108
69 99 85 39 83 63 53 59 74 60 68 67 84 106 111 111 143 133 164 163 172 204 196 145 146 167 171 221 218 252 298 267 250 189 233 186 127 62
92 90 41 88 41 69 81 107 99 79 104 97 123 124 145 142 143 152 137 154 162 194 176 143 171 163 157 135 216 286 211 213 255 287 204 134 173 202
91 58 86 45 73 97 116 120 131 147 148 168 186 192 164 168 116 150 154 147 161 158 137 159 168 184 206 197 222 196 136 167 219 238 236 241 209 272
46 72 51 87 106 131 143 146 155 156 153 166 173 179 192 90 102 134 155 131 132 97 133 153 165 185 170 173 202 289 139 89 167 207 258 236 234 253
78 54 91 105 132 149 149 149 148 151 120 138 184 185 177 175 88 103 113 73 54 74 102 167 173 130 121 103 123 145 113 106 80 99 222 289 369 423
57 81 98 113 142 158 158 157 162 163 168 181 195 194 178 163 88 79 61 51 63 51 85 120 112 95 76 73 118 162 151 181 182 182 166 185 296 382
76 96 118 147 172 173 167 173 176 195 202 210 205 197 178 156 133 127 39 26 16 26 24 61 72 78 70 83 117 136 153 152 143 144 162 140 142 182

GFSNE_con_3kmhel_033.txt.gz
Helicity
100 101 127 127 136 154 175 189 210 202 168 190 162 143 126 133 111 114 142 89 63 81 105 116 124 120 134 161 194 186 177 168 150 116 32 50 112 83
107 123 130 140 143 153 170 171 187 218 310 229 189 157 149 160 121 101 120 45 63 52 57 73 74 93 98 110 116 120 124 76 75 62 47 48 105 105
118 129 125 136 168 166 164 173 191 201 256 242 217 186 171 148 131 107 99 97 110 -12 0 40 38 44 56 57 70 83 102 97 92 44 75 70 75 113
110 126 139 153 162 170 191 181 202 216 242 197 208 184 156 141 149 132 117 111 140 95 81 34 21 8 16 32 46 49 59 80 133 164 169 175 167 95
121 145 151 163 181 191 196 207 188 161 182 199 210 198 201 175 153 143 134 103 153 78 62 30 11 16 21 29 26 30 34 34 41 50 58 62 63 59
137 145 154 178 195 194 178 176 181 184 185 185 200 196 211 176 199 156 101 118 156 159 110 74 42 49 25 27 30 27 36 44 46 58 60 58 56 64
133 145 169 182 173 174 186 174 151 167 176 181 227 201 184 151 112 130 169 129 161 177 213 230 161 156 159 82 33 -25 -42 7 24 33 37 37 37 40
154 176 203 161 147 110 97 74 87 111 121 176 168 140 127 145 163 181 170 165 117 180 138 210 183 136 166 151 77 21 -3 -23 -36 -30 -34 -8 18 23
179 196 190 152 113 131 90 56 76 123 96 115 140 149 139 143 93 49 94 153 223 224 123 234 190 178 179 151 59 37 12 -10 -31 -38 -47 -38 -16 11
190 168 150 124 108 82 104 129 96 98 109 115 118 127 100 49 37 86 125 173 260 249 188 241 236 234 191 204 128 70 28 -9 -32 -52 -51 -53 -43 -19
151 131 97 100 67 39 104 106 94 101 85 49 56 55 44 41 62 106 129 112 197 213 176 204 237 227 204 273 233 112 62 54 4 -24 -31 -39 -46 63
142 108 90 85 41 48 85 84 91 95 110 99 70 69 82 114 51 82 132 156 192 230 215 224 229 202 201 331 234 210 187 168 97 52 35 24 8 44
139 136 120 51 39 32 29 82 89 24 55 29 101 117 120 116 118 121 141 179 170 225 218 142 223 206 211 244 272 253 202 207 159 109 55 47 25 13
132 129 114 41 28 26 32 35 -12 6 79 103 106 105 89 102 110 120 146 172 217 223 234 184 244 232 267 299 311 243 199 203 197 155 114 78 33 17
137 80 56 46 39 49 33 -13 -20 104 106 114 118 110 129 133 138 139 153 155 186 194 200 208 237 250 261 295 307 259 198 170 151 141 201 233 192 106
96 105 74 59 46 55 62 70 90 93 78 118 142 155 161 174 158 140 156 162 169 190 176 159 169 202 240 237 217 293 291 225 314 292 300 263 272 175
80 104 90 77 81 84 79 91 104 97 112 136 143 154 163 160 190 159 172 173 181 206 229 205 147 180 207 169 193 263 307 273 274 241 161 154 42 128
94 88 90 87 88 81 97 113 130 105 140 143 151 174 169 154 103 128 141 160 173 200 207 181 187 163 153 95 228 315 228 187 154 161 170 165 127 75
94 95 92 97 95 109 130 140 157 168 154 163 174 189 158 160 124 73 98 94 150 180 155 163 155 128 166 152 202 136 244 173 189 148 178 208 198 71
86 82 96 96 111 130 147 150 161 169 152 156 167 156 155 153 136 69 80 102 112 93 119 115 98 112 118 160 233 300 191 135 98 155 212 239 192 81
70 90 96 108 134 151 154 154 163 173 141 158 181 169 165 147 150 118 80 62 75 43 64 110 117 97 85 86 120 128 129 162 106 148 165 289 302 267
76 91 104 123 143 155 157 157 165 172 172 168 167 163 161 162 155 133 82 77 77 39 49 84 80 67 42 70 103 97 98 141 155 196 233 248 276 281
89 89 114 143 167 180 170 174 179 202 185 170 160 177 173 161 136 111 98 73 43 21 12 40 51 36 56 63 59 94 114 145 166 192 315 313 237 436

GFSNE_con_3kmhel_036.txt.gz
Helicity
104 109 131 123 137 145 165 179 164 127 103 128 114 135 113 98 73 84 112 67 43 57 53 71 96 113 131 131 163 153 158 167 152 153 154 160 133 72
115 117 121 143 154 178 202 206 214 207 267 216 169 147 126 137 106 89 129 47 34 22 24 20 38 58 76 76 117 109 123 138 142 160 140 143 94 49
116 118 123 147 185 202 213 212 205 202 235 239 202 169 158 132 150 130 109 99 112 23 35 39 36 29 19 24 39 52 64 68 69 80 85 72 66 62
113 129 137 158 173 183 191 184 201 204 243 226 202 172 165 155 141 106 113 144 187 125 42 23 27 22 19 17 20 25 33 37 40 42 69 87 90 48
117 129 142 163 162 158 170 194 198 189 204 213 213 195 215 157 140 146 124 158 180 84 60 62 42 36 14 0 -4 -28 -39 -25 0 15 30 42 44 53
134 149 154 145 134 146 165 180 203 205 186 192 214 200 188 166 137 145 122 158 175 159 174 138 66 50 32 6 -18 -29 -40 -38 -35 -23 13 47 44 46
136 134 131 121 112 151 190 199 175 170 174 188 205 143 130 102 127 158 121 131 211 225 230 231 213 224 216 112 70 24 -10 -26 -16 1 27 50 50 44
128 128 169 128 150 118 115 98 101 97 138 135 134 144 145 155 108 123 181 195 235 190 227 293 241 254 243 240 130 55 28 6 -8 15 29 48 54 38
133 165 177 176 137 160 105 65 64 79 83 115 133 144 72 105 119 138 163 205 236 257 196 280 244 276 239 217 99 51 35 21 -2 -18 -23 -34 -37 -47
167 167 166 152 132 84 102 128 106 95 119 121 112 111 110 96 105 133 140 150 228 244 201 272 257 279 238 244 167 101 43 16 17 14 9 5 -16 -29
163 145 135 120 64 25 103 104 93 102 87 41 48 43 50 45 58 105 123 110 139 195 202 227 280 282 308 401 283 181 145 85 55 55 69 79 36 -3
150 146 98 84 27 42 85 86 92 96 95 84 75 73 73 103 54 91 113 128 139 178 210 250 265 263 325 435 342 340 278 208 101 80 76 78 71 34
154 139 128 40 35 39 34 82 89 65 29 31 95 112 128 132 137 143 123 143 157 212 243 141 286 277 269 369 395 335 255 238 206 168 83 55 45 35
130 128 111 38 34 31 44 29 16 23 76 92 108 129 128 150 165 154 152 172 206 230 238 186 264 252 279 334 364 303 293 243 211 191 134 101 61 63
126 72 52 48 39 50 24 16 18 88 83 99 123 137 150 168 155 145 162 168 198 212 203 192 237 250 261 308 313 275 230 239 190 219 294 280 254 186
91 107 77 62 41 34 54 61 91 83 74 117 149 161 157 142 151 147 154 166 174 218 206 168 164 199 223 234 217 286 294 224 325 280 290 269 263 287
86 115 95 75 76 74 73 91 102 103 121 139 141 141 143 131 157 142 161 154 109 177 246 218 153 143 180 210 234 268 304 286 194 202 151 157 86 31
100 99 92 88 84 78 97 119 133 113 142 141 136 147 142 147 145 143 132 135 53 126 207 166 152 139 160 152 175 251 183 223 183 191 175 173 94 55
94 98 100 97 100 112 126 141 156 165 141 151 161 184 169 161 103 119 120 39 78 93 115 115 113 65 126 150 183 28 187 199 167 131 210 127 72 68
88 93 99 103 118 124 143 154 164 159 145 154 171 162 166 153 139 128 92 60 71 86 93 84 75 66 90 110 177 195 130 193 202 106 154 117 81 77
75 85 99 119 128 143 164 160 159 172 146 167 167 161 153 141 149 145 89 63 39 46 57 82 99 85 62 39 48 91 123 159 194 200 173 145 129 131
70 91 115 127 142 162 174 179 192 186 167 148 140 157 168 159 156 145 101 75 76 56 46 73 71 48 -3 -2 54 87 104 184 211 213 266 212 101 123
86 100 117 146 174 187 192 192 193 197 171 156 165 177 174 163 146 138 132 105 41 21 16 26 36 3 14 16 34 74 93 118 210 263 271 288 268 226

GFSNE_con_3kmhel_039.txt.gz
Helicity
100 93 95 104 114 117 130 143 145 150 141 138 119 132 112 95 51 60 76 22 29 19 42 57 73 79 84 91 94 114 106 90 65 97 99 107 85 53
96 99 108 119 122 139 157 170 189 192 287 197 172 140 105 95 68 60 63 45 29 48 48 56 28 14 24 25 26 42 55 88 97 93 109 101 83 135
106 116 117 129 146 157 170 186 199 190 237 234 194 134 99 82 84 71 69 88 129 59 19 14 17 20 19 25 27 31 36 38 44 48 45 40 46 60
112 131 132 147 134 138 166 166 167 163 204 187 159 143 120 80 71 91 129 119 98 68 44 32 19 -3 -9 -6 -3 -7 -3 28 34 40 36 37 30 53
127 126 123 121 126 144 145 145 145 158 154 183 183 192 134 103 124 106 78 94 82 54 94 50 41 36 27 21 16 10 9 13 -10 7 40 47 47 50
118 112 108 125 138 122 111 104 152 172 157 169 205 174 156 118 118 107 89 96 90 101 157 90 80 78 58 45 29 24 22 18 19 6 -4 38 43 13
104 107 126 124 82 98 154 179 170 165 164 181 208 125 112 112 104 95 42 122 119 117 179 149 150 218 197 115 82 43 34 42 42 36 27 9 29 21
108 114 121 92 87 82 121 106 118 124 113 128 115 125 108 109 65 124 141 103 149 121 154 213 189 210 209 197 91 37 14 -4 -12 -11 10 17 17 14
111 109 104 113 103 131 100 71 78 55 70 105 108 104 112 11 60 109 90 121 164 209 119 205 219 239 223 225 132 92 49 35 34 46 61 57 42 15
102 85 98 105 111 96 115 131 86 67 83 90 85 106 113 70 83 102 80 95 185 209 119 224 247 251 252 349 232 107 125 96 77 71 74 77 69 53
80 74 94 102 85 58 111 99 79 72 64 34 42 56 43 27 63 129 149 152 150 172 174 147 201 223 275 372 256 185 178 128 79 42 35 31 52 67
97 103 93 103 55 50 84 86 87 56 65 58 72 63 47 56 57 98 128 148 155 147 149 168 196 139 192 265 295 276 228 160 104 83 59 42 43 43
130 126 115 56 36 36 34 76 74 55 38 62 64 62 70 75 82 94 84 124 155 201 241 141 213 203 217 336 376 336 234 212 166 166 92 52 35 22
123 112 95 36 32 33 50 36 18 23 65 57 58 92 89 103 123 117 110 133 150 194 194 166 210 198 247 309 341 281 264 263 220 172 159 140 87 64
118 66 44 46 36 54 35 15 17 55 52 60 88 105 110 123 119 108 112 111 123 164 150 157 180 221 257 302 311 277 248 310 190 240 242 229 223 209
79 102 76 61 54 43 39 43 59 58 60 78 102 116 120 113 115 95 93 86 79 127 121 100 132 150 197 212 162 257 329 341 374 293 195 177 198 214
87 105 80 61 52 46 52 65 68 69 84 93 104 105 106 96 110 94 102 77 31 64 127 129 97 99 136 165 172 215 347 316 267 258 207 143 57 12
99 83 61 57 54 56 69 88 97 90 102 110 112 115 121 118 105 108 105 108 21 63 86 100 108 98 88 123 82 214 255 228 240 200 130 130 93 21
81 62 65 62 74 101 113 121 131 131 124 125 128 144 144 134 86 117 119 92 46 59 98 60 66 36 70 119 168 109 213 220 210 146 128 119 99 84
64 60 71 85 109 119 132 140 150 149 135 131 122 100 118 131 133 133 137 46 49 80 81 54 33 29 43 84 160 167 139 180 171 162 105 132 121 106
30 64 82 116 128 140 155 154 150 161 122 113 114 130 147 151 162 149 150 62 14 23 61 66 70 64 50 44 46 68 123 128 122 112 121 82 122 121
62 84 109 128 143 153 155 151 161 158 144 138 151 175 176 171 165 150 140 94 32 40 68 67 59 20 -23 -22 40 60 110 164 172 133 138 119 133 136
80 101 129 149 163 162 158 162 171 188 179 179 190 197 193 179 144 107 105 95 43 25 38 36 30 -1 18 24 30 61 57 137 187 174 185 196 195 194

GFSNE_con_3kmhel_042.txt.gz
Helicity
112 116 116 116 114 116 121 121 111 107 121 129 116 182 184 163 125 119 113 68 67 53 58 65 58 57 64 63 59 58 71 82 94 104 116 106 49 51
122 119 115 119 113 115 121 133 146 153 215 190 181 195 172 167 128 92 90 77 45 36 33 22 27 35 35 33 29 35 38 50 61 63 60 58 86 63
116 115 110 110 114 126 142 157 174 187 220 219 199 169 149 123 120 112 117 91 112 38 37 28 23 16 3 -15 -20 -15 2 15 26 24 33 48 63 48
115 110 104 123 122 139 160 171 194 200 213 183 172 149 139 120 100 96 94 99 92 50 18 21 10 9 11 20 10 11 19 26 21 19 18 21 39 52
106 106 116 132 136 162 167 185 191 186 175 194 187 160 151 129 87 109 75 75 70 37 24 18 24 28 22 27 -11 -2 21 20 24 32 39 26 23 24
105 110 126 133 141 149 157 159 171 175 154 171 181 183 162 113 108 92 72 64 78 68 79 52 40 41 39 39 37 26 20 31 55 58 50 43 26 19
107 117 126 136 118 132 175 159 163 172 166 170 196 185 120 103 77 65 75 64 77 83 99 120 109 138 154 100 81 47 49 72 80 80 80 80 52 37
108 117 128 124 133 124 133 113 108 126 142 159 157 132 88 84 74 61 64 24 15 76 85 188 144 162 193 184 98 73 57 40 43 50 45 47 43 45
112 120 133 159 144 151 116 61 76 70 85 112 112 86 83 64 81 53 18 16 128 144 110 212 164 189 185 206 179 112 42 53 68 58 51 47 53 51
116 119 140 142 131 107 96 123 123 91 81 95 75 69 74 90 79 14 9 42 161 165 102 185 145 162 200 261 160 60 100 86 59 46 46 49 48 45
120 109 124 90 69 67 116 117 94 71 59 45 32 22 29 12 49 95 92 93 117 114 121 89 116 147 132 242 158 128 150 91 36 35 25 38 44 31
124 104 85 92 77 62 99 96 91 58 53 47 51 45 39 43 31 79 115 116 112 98 118 96 101 67 81 198 230 268 209 125 61 54 36 24 19 65
120 108 102 87 57 59 49 71 72 54 30 46 56 56 50 54 66 72 87 112 121 160 177 78 128 78 127 169 207 245 218 183 167 160 103 101 100 83
108 97 100 55 50 36 49 45 27 25 64 66 61 62 69 83 86 89 77 99 130 167 159 124 181 45 78 146 195 233 197 180 203 210 238 227 144 94
107 74 37 49 38 45 40 22 29 65 64 69 77 86 88 96 88 97 88 86 91 119 148 116 113 45 50 167 234 251 81 219 197 209 214 189 197 189
88 86 65 49 41 40 40 50 65 66 72 84 86 89 86 80 91 87 79 78 88 123 113 95 46 41 54 120 123 167 152 180 232 210 182 159 155 146
82 87 78 66 59 52 57 60 68 69 73 76 92 92 74 69 90 85 90 89 91 95 87 86 41 35 46 86 135 143 160 176 163 149 136 153 119 141
91 87 76 64 56 56 56 57 72 74 90 100 105 99 104 93 83 97 98 97 98 101 52 54 59 38 47 64 46 116 151 154 137 104 132 135 144 119
89 78 70 64 64 64 67 82 109 110 104 106 106 109 105 106 85 122 116 108 103 42 41 35 19 4 50 104 137 107 97 119 128 100 58 125 165 121
67 62 65 68 66 66 79 98 117 127 130 122 121 122 129 124 128 130 122 109 111 47 68 41 4 -12 9 93 162 181 75 74 75 102 103 127 145 157
42 60 67 69 73 85 100 116 121 149 131 125 133 138 145 130 146 133 117 71 38 19 54 57 49 45 23 47 61 69 72 41 54 81 114 74 71 153
44 58 63 69 86 108 126 127 133 144 135 135 144 148 155 154 149 116 70 87 65 35 57 65 51 27 23 39 88 76 74 76 70 77 52 86 124 162
47 56 66 95 120 133 135 136 149 159 150 147 156 168 162 151 129 74 45 69 70 31 31 54 47 26 43 45 68 67 54 50 96 79 61 90 136 106

GFSNE_con_3kmhel_045.txt.gz
Helicity
112 108 112 125 140 139 146 151 156 159 153 138 128 216 226 235 200 205 171 84 39 43 53 58 40 46 53 48 40 41 44 36 38 41 45 47 46 39
111 109 128 144 147 149 149 154 169 179 211 205 198 209 207 227 188 146 133 49 68 41 44 34 44 48 45 28 21 17 15 9 14 25 20 20 27 17
106 122 134 132 135 140 150 161 178 185 210 227 216 213 207 175 159 138 110 123 109 55 38 24 34 30 18 21 -7 -12 -2 10 18 19 28 34 34 38
122 134 122 126 135 135 151 160 184 190 207 194 216 201 166 133 123 114 116 134 119 58 23 17 17 14 5 2 23 21 23 25 24 22 36 32 33 33
121 119 121 128 134 150 167 184 199 219 227 232 219 193 172 149 125 125 123 95 114 68 19 22 22 5 27 38 29 7 -24 -24 21 28 33 39 33 32
106 111 116 127 135 164 204 211 218 227 221 225 209 184 162 132 128 124 110 112 86 89 58 69 -10 29 45 40 32 17 -10 25 47 41 28 17 20 15
104 108 123 151 152 146 185 191 193 210 204 188 177 166 153 119 106 105 102 81 94 93 107 112 107 149 143 105 69 39 34 35 23 15 17 27 36 32
117 130 145 144 160 175 153 151 139 163 146 151 153 152 116 112 105 91 78 91 96 88 89 82 121 165 162 168 80 48 11 -14 -2 24 41 39 29 46
120 135 150 166 178 183 172 130 140 70 50 90 122 128 113 101 94 117 105 95 118 124 78 123 148 163 153 155 136 123 25 -27 -9 35 42 41 28 33
123 128 144 155 160 158 177 162 136 106 90 111 116 115 106 98 126 121 99 98 126 142 95 120 154 136 122 198 181 80 56 53 44 38 19 2 32 58
115 141 149 144 117 110 137 146 114 109 76 46 58 26 16 10 40 100 110 113 117 134 128 138 118 138 129 188 180 123 141 91 39 18 -3 14 28 36
158 136 107 122 113 98 111 115 104 90 76 62 67 64 58 59 28 73 109 131 134 126 158 127 105 83 71 186 159 184 134 90 43 12 16 14 25 74
138 139 144 91 78 47 59 86 86 71 56 69 81 87 85 80 80 85 91 123 142 170 163 92 133 114 136 136 140 169 108 143 156 77 83 86 79 52
135 136 116 44 39 38 52 47 37 37 88 91 93 95 90 92 92 88 75 100 149 183 167 136 194 162 121 60 150 136 115 115 74 62 120 191 148 77
129 86 34 35 36 55 45 33 45 88 89 96 108 124 122 124 109 103 103 113 112 144 170 156 167 125 154 66 120 148 69 100 64 120 170 186 149 179
94 93 67 37 44 52 59 70 84 86 86 101 121 141 143 133 135 125 124 133 139 154 127 122 100 59 51 61 38 129 119 101 122 168 157 168 141 184
77 98 81 70 73 73 76 76 82 91 98 119 139 145 147 139 142 120 132 142 145 130 120 125 94 38 63 65 62 116 90 109 104 86 65 107 145 147
102 84 71 73 75 74 78 85 99 92 119 134 142 140 140 140 140 148 138 134 138 141 126 121 30 37 17 -4 7 3 93 79 92 87 65 94 124 97
87 69 75 77 76 81 85 100 119 126 119 145 143 142 140 138 99 142 148 149 140 130 122 42 12 15 39 94 138 70 21 83 89 105 68 99 123 136
62 64 71 72 75 85 105 130 145 138 135 134 139 144 151 154 155 161 167 126 98 140 88 42 30 15 32 85 130 225 86 26 33 82 89 80 108 117
11 62 67 68 88 114 141 151 150 149 132 144 150 155 161 158 162 167 125 44 29 63 71 101 79 58 36 51 41 95 101 39 34 55 88 58 46 82
30 58 64 87 114 146 157 153 149 155 159 162 164 168 171 176 134 66 70 68 95 116 114 93 70 53 38 21 62 77 71 52 65 70 50 33 24 57
46 65 85 118 144 161 157 157 167 184 184 188 195 196 199 179 141 59 54 71 110 50 34 74 62 34 27 41 46 56 46 19 50 77 35 31 42 44

GFSNE_con_3kmhel_048.txt.gz
Helicity
96 110 119 131 158 155 161 176 188 184 156 145 131 145 135 144 143 154 159 119 99 88 95 106 92 81 83 75 59 46 42 45 33 19 11 12 11 11
114 127 139 154 155 151 157 164 181 201 225 216 178 167 151 158 149 136 149 89 80 67 67 59 49 39 50 48 25 20 19 18 24 24 29 22 17 20
124 134 138 145 131 146 160 164 177 197 203 204 196 174 199 178 164 165 136 141 143 65 52 27 25 44 25 17 23 26 19 18 17 21 26 30 36 29
132 142 129 134 147 151 159 161 191 201 215 185 196 204 211 184 172 155 146 133 129 49 10 28 11 24 9 18 18 10 6 21 36 33 37 27 24 33
121 117 113 134 143 153 171 195 207 198 217 234 223 209 198 177 158 148 135 119 103 69 29 15 29 13 21 23 19 6 21 22 17 15 11 6 18 11
103 109 120 127 137 160 174 178 182 199 200 222 229 212 176 140 145 146 129 120 105 98 65 43 30 40 27 34 19 30 28 23 10 3 9 8 2 2
102 111 130 135 126 134 165 193 200 211 218 206 188 178 151 136 126 117 138 122 110 106 80 160 107 143 138 76 79 72 57 35 22 10 3 -4 -11 -6
112 110 121 120 132 146 156 158 165 178 187 178 174 154 130 122 133 138 143 120 108 91 115 147 122 144 136 141 84 79 76 47 41 12 -4 -13 -13 -13
99 110 125 139 145 175 154 134 136 105 90 115 122 121 113 107 139 144 144 134 146 126 122 114 131 139 137 131 74 103 123 83 46 17 17 6 4 22
98 108 131 149 161 159 176 184 165 139 110 115 105 105 116 92 100 116 102 120 116 113 104 125 163 127 101 137 133 85 104 105 91 67 29 4 -12 -8
113 132 148 163 146 117 166 156 125 106 82 29 20 19 17 13 39 97 102 105 106 100 121 119 115 95 103 125 116 89 182 165 135 84 36 -2 -35 -50
132 142 104 132 113 91 120 115 103 81 82 87 85 74 68 99 42 89 105 123 122 96 131 96 73 57 32 129 121 181 173 175 140 104 29 -9 -39 -17
139 135 135 85 74 58 47 79 72 65 58 84 85 100 113 112 125 127 120 133 141 158 152 84 104 104 137 96 133 157 189 203 137 93 40 -9 -2 8
129 132 126 67 49 32 42 35 28 46 80 90 103 117 126 131 130 131 135 141 177 192 149 131 182 156 99 70 105 115 150 134 45 52 7 18 44 62
132 91 60 48 35 41 40 35 50 91 101 105 120 133 141 150 137 131 127 136 163 183 178 154 169 162 176 41 77 113 105 112 57 -4 9 65 157 129
92 100 76 43 34 47 53 73 92 94 90 100 122 139 148 140 141 138 137 152 158 182 164 160 157 158 105 34 46 88 76 53 84 47 36 78 126 138
75 88 79 61 52 64 75 86 98 102 102 113 126 142 146 137 155 147 142 143 154 166 156 144 118 135 109 89 65 76 74 63 67 50 1 32 119 156
98 85 60 52 59 67 74 87 109 102 129 136 144 151 156 158 157 147 154 143 162 166 119 124 96 62 59 55 13 10 64 53 70 30 46 67 130 132
86 65 53 56 71 81 101 123 138 150 146 158 158 168 173 173 113 150 133 156 119 114 147 147 75 53 65 125 125 24 -21 71 42 74 69 80 100 117
76 51 36 68 81 99 121 132 147 153 150 156 177 174 165 166 161 152 39 38 64 101 121 86 59 51 22 71 179 226 52 3 9 70 96 81 100 111
45 -19 69 82 99 120 140 147 152 165 151 169 179 176 180 176 175 112 51 54 32 48 89 105 85 52 37 70 73 109 130 33 15 36 75 83 61 98
-10 20 68 99 123 143 151 160 167 180 188 195 198 204 211 195 148 78 76 81 84 84 121 119 69 46 46 55 94 93 92 68 82 85 89 75 77 92
21 58 87 114 145 157 161 175 183 204 213 225 236 247 234 192 132 104 112 107 105 98 44 65 75 67 95 104 70 46 48 64 51 67 126 73 51 55

GFSNE_con_3kmhel_051.txt.gz
Helicity
101 114 117 127 153 167 182 178 167 154 135 133 106 115 93 91 94 114 139 117 99 109 121 132 142 135 133 131 120 127 75 85 64 40 28 22 20 24
102 108 119 131 153 170 165 170 182 186 218 207 161 133 113 115 113 133 140 102 105 98 108 111 111 107 95 123 82 68 66 36 28 27 25 26 22 18
108 108 122 142 162 165 168 166 166 189 199 196 183 155 171 155 157 159 153 161 152 86 103 96 86 101 96 75 72 46 32 25 25 36 40 42 44 40
103 119 121 154 148 145 155 148 174 183 194 156 165 162 169 169 173 172 175 165 164 98 58 50 52 62 42 37 28 40 34 32 41 51 54 42 45 46
113 112 126 130 136 144 147 159 175 181 188 202 189 183 191 162 161 175 175 154 140 60 46 44 44 33 31 36 36 41 43 37 32 27 28 20 27 36
136 134 122 125 123 129 144 152 164 178 183 188 197 192 157 131 155 161 135 124 129 115 94 44 20 36 44 48 47 43 47 39 21 21 17 17 23 26
140 133 130 116 114 139 175 184 190 191 201 213 205 186 147 147 142 117 126 129 125 108 87 82 113 146 141 78 56 54 55 43 43 28 21 17 17 26
121 121 119 122 133 130 142 143 153 176 197 213 194 161 145 120 121 120 147 146 128 74 96 108 111 132 132 114 40 52 80 69 53 43 29 22 18 23
106 122 137 145 162 159 148 134 132 123 110 142 138 125 120 114 133 151 152 133 135 124 109 99 123 114 131 103 57 66 74 89 88 72 65 52 36 32
118 130 133 125 147 163 182 186 173 133 121 120 116 116 116 104 100 108 104 132 129 105 98 110 113 110 111 118 87 32 47 92 116 113 87 63 46 33
110 109 125 149 136 126 179 184 153 121 79 29 30 36 38 24 50 117 129 138 132 117 111 124 106 117 106 100 67 4 84 131 162 124 93 73 56 38
110 125 115 140 132 116 141 138 114 79 82 79 81 66 66 91 51 113 152 164 160 132 151 157 127 106 46 142 98 156 155 147 153 159 123 81 55 31
102 126 142 117 98 91 90 111 85 64 71 58 53 77 87 105 117 126 127 148 142 163 193 115 166 150 161 46 140 151 165 178 199 166 138 84 32 -11
131 131 134 80 91 70 83 54 43 61 53 67 78 93 106 119 117 122 121 132 159 169 169 136 183 152 146 22 79 118 155 169 77 112 95 48 37 16
135 95 102 97 83 84 46 42 53 74 80 85 94 107 121 135 125 125 129 131 137 155 164 146 170 159 168 142 51 98 94 110 62 19 9 6 24 23
92 105 104 93 69 44 53 68 93 90 88 100 116 126 123 118 124 128 134 124 108 128 136 156 146 161 168 190 78 91 74 76 99 92 58 53 30 -20
112 104 91 80 62 67 67 78 92 100 105 115 116 109 112 115 127 129 135 128 129 141 72 151 158 180 201 107 88 97 97 117 136 113 35 35 10 -13
112 87 75 53 55 52 63 76 105 92 119 119 122 131 140 140 136 125 126 119 138 40 56 81 77 72 78 105 115 99 164 140 122 68 -1 -16 78 87
88 77 52 52 42 70 87 103 110 126 124 133 145 163 166 167 106 136 138 122 36 61 114 116 58 35 90 143 136 76 -6 86 52 42 27 44 84 140
89 55 43 19 61 92 105 111 127 137 139 150 172 166 173 178 169 126 70 61 77 108 122 96 66 89 107 147 203 202 37 12 45 65 84 83 118 94
53 17 3 72 100 107 113 123 138 145 138 169 203 212 207 175 152 119 112 95 63 90 122 120 127 91 93 122 142 162 109 40 -3 0 -3 89 100 85
7 22 44 86 114 120 130 140 147 155 180 213 238 232 218 192 182 164 147 137 134 129 155 175 147 122 131 125 137 142 116 72 71 49 71 78 119 126
27 46 76 111 127 135 141 155 155 182 214 238 250 260 242 223 196 194 190 174 168 169 134 119 137 138 142 116 72 74 74 71 54 42 78 53 79 82

GFSNE_con_3kmhel_057.txt.gz
Helicity
335 295 245 193 184 175 156 137 130 162 126 146 140 136 138 109 78 84 78 65 69 88 97 119 144 157 171 179 189 178 175 155 129 131 101 55 60 47
283 333 262 187 223 225 176 139 151 148 186 150 155 151 132 121 96 106 114 95 100 114 115 133 133 142 146 138 137 125 99 79 83 81 70 33 35 39
379 310 197 216 153 127 147 166 147 186 195 194 183 172 168 144 141 162 143 157 156 110 127 131 133 115 97 94 79 76 75 86 79 65 57 51 49 43
386 255 273 140 195 163 140 151 151 159 193 175 181 178 172 154 150 155 158 166 177 133 101 100 97 76 72 55 65 62 68 74 61 63 52 42 34 32
265 238 152 177 139 133 130 141 153 164 188 206 171 178 164 152 171 168 180 173 179 94 69 87 76 67 75 76 76 86 86 84 89 84 63 41 40 39
142 173 145 130 125 143 148 135 152 172 178 185 186 203 192 154 181 171 187 178 173 139 101 63 29 42 68 69 81 90 92 88 87 77 58 40 39 47
88 122 122 141 134 128 147 150 159 175 184 195 210 237 204 173 171 183 192 161 130 128 118 96 112 154 155 90 71 52 62 74 76 66 58 35 35 37
87 112 124 154 163 163 150 147 165 190 199 220 230 211 174 181 180 167 166 136 91 71 118 123 115 148 162 135 55 29 31 36 45 58 55 31 22 28
118 131 130 143 154 145 136 138 155 143 160 187 193 175 173 145 154 144 125 122 122 121 112 139 130 151 143 116 40 31 25 21 35 48 52 43 35 33
109 116 115 110 113 113 138 168 184 163 161 171 157 143 138 120 111 109 101 118 132 125 106 153 114 129 119 135 72 9 -5 15 51 56 58 57 40 28
101 105 102 107 95 112 157 171 156 144 114 53 63 54 52 44 59 111 123 120 115 109 106 116 119 88 112 106 61 -1 8 42 49 56 26 -28 12 17
119 111 103 125 116 109 161 162 143 117 112 96 96 72 73 84 57 119 139 147 124 86 87 142 118 84 25 113 104 166 141 79 43 47 52 24 -4 44
109 123 136 121 104 120 112 139 107 81 97 64 66 81 88 96 107 118 125 154 138 175 163 102 171 145 168 175 153 156 146 135 159 152 93 49 -5 19
126 137 132 92 101 98 108 76 65 68 59 66 77 90 97 105 111 116 116 129 162 168 138 137 201 175 166 126 27 92 164 193 184 166 162 98 38 26
134 118 123 110 107 107 85 71 58 59 61 73 83 98 119 135 135 143 145 140 146 152 156 125 115 73 94 108 101 86 49 175 157 101 61 13 23 64
135 127 120 109 91 77 63 52 62 71 73 84 100 113 125 140 150 161 164 128 116 129 130 116 105 113 124 149 144 173 178 117 129 71 42 31 32 15
147 108 102 94 86 62 61 69 76 78 84 99 112 122 139 146 166 149 167 164 167 158 147 124 111 144 186 137 115 175 174 149 153 123 54 71 67 53
120 82 71 63 41 40 50 68 83 69 96 107 115 143 161 159 160 159 167 174 183 179 171 163 134 108 118 159 200 231 252 218 193 127 77 58 81 70
65 45 41 30 33 45 60 74 92 109 118 124 145 162 169 168 115 161 170 180 195 194 214 207 193 186 167 200 219 164 138 206 161 125 91 51 55 126
41 28 34 37 47 63 80 91 104 113 115 129 156 154 138 150 166 182 190 188 199 209 222 197 193 201 199 228 242 250 138 120 123 135 166 162 182 156
20 54 62 61 71 87 97 109 123 129 110 130 150 153 157 167 190 189 200 144 117 184 206 212 209 132 161 174 200 234 220 148 167 161 128 82 46 47
50 66 66 76 87 94 103 110 116 129 140 163 167 173 189 191 204 203 203 197 187 201 229 246 205 179 185 172 195 215 271 245 185 150 153 144 151 152
42 65 75 83 93 101 108 115 124 145 164 177 185 182 190 196 201 213 222 213 181 173 151 172 189 182 185 182 183 223 221 232 217 200 170 123 61 62

GFSNE_con_3kmhel_060.txt.gz
Helicity
403 382 353 366 357 334 304 268 221 194 210 191 135 131 129 159 124 110 86 60 64 75 62 61 81 99 115 121 137 147 137 135 145 137 98 69 97 58
440 392 480 355 422 397 363 335 237 213 202 141 129 139 155 138 100 97 93 63 69 80 80 89 107 122 115 100 96 96 101 77 58 71 51 45 42 54
451 428 326 361 273 242 259 194 181 160 225 174 144 156 152 133 125 128 113 127 135 96 109 129 151 138 112 115 88 79 62 63 54 45 54 60 64 53
403 339 337 304 239 170 141 95 121 144 159 158 157 146 128 119 117 121 123 138 151 107 107 139 155 123 107 79 76 66 64 64 51 45 53 50 48 36
306 318 283 218 153 102 81 115 114 129 150 164 147 126 115 114 134 135 140 144 151 106 107 134 124 98 86 70 59 70 50 35 33 35 43 42 33 28
263 235 203 119 73 89 104 107 134 131 131 141 149 153 139 118 144 133 131 148 168 156 134 103 80 74 64 67 64 50 41 35 36 40 43 46 47 38
206 126 76 27 56 104 133 123 113 133 140 152 150 164 159 143 136 153 172 160 148 125 125 124 121 149 182 113 79 51 50 54 54 45 43 48 58 52
88 70 91 117 134 106 111 121 116 136 151 157 165 157 150 156 170 154 162 137 121 95 127 135 134 159 175 140 55 39 45 48 42 41 43 48 50 43
65 92 111 97 109 105 106 128 144 120 124 150 164 163 170 144 151 131 113 122 131 142 134 163 139 163 125 118 38 37 29 16 23 41 43 48 55 54
91 75 80 99 102 103 119 132 126 114 131 154 157 142 131 105 101 105 106 137 172 163 148 187 122 131 94 117 55 -12 3 17 37 52 55 63 75 58
89 102 90 99 102 110 126 117 112 128 114 70 60 37 30 22 46 109 131 145 155 154 163 131 168 128 103 86 2 -46 -0 47 64 53 42 50 67 25
107 107 101 100 88 95 147 150 138 113 93 72 68 52 58 69 46 109 149 172 165 155 181 233 217 144 81 119 96 147 124 73 36 38 46 29 -20 7
100 110 122 133 140 143 124 130 88 60 71 43 47 68 75 88 103 119 133 187 168 226 224 169 285 203 228 191 211 192 187 159 179 148 86 41 21 34
141 149 150 150 135 114 96 52 38 51 40 52 65 83 96 106 111 120 129 151 199 199 161 148 257 233 244 242 245 226 225 232 208 157 139 84 16 -9
167 186 156 120 93 79 54 49 42 47 53 62 71 91 104 121 124 135 140 152 185 195 178 170 207 191 226 268 283 255 142 173 132 75 69 84 77 35
168 136 97 75 52 40 43 38 50 57 56 65 78 94 104 127 136 142 153 141 146 172 182 200 201 207 220 233 245 273 247 205 190 158 134 120 114 109
128 78 48 37 37 36 48 62 67 65 71 82 93 99 121 124 142 134 165 166 192 188 174 169 174 212 251 213 186 223 195 203 206 191 123 121 129 130
54 17 17 13 16 42 56 69 80 69 91 102 113 135 146 143 143 157 159 175 188 201 196 197 171 156 165 186 229 241 272 266 250 200 141 129 182 155
3 3 2 17 41 66 72 80 92 105 119 129 139 156 165 173 139 183 177 182 196 201 215 206 196 188 172 211 249 195 242 248 218 202 201 198 176 182
-1 -7 7 23 48 66 74 83 95 101 110 130 160 154 161 173 171 183 188 183 190 195 202 189 177 185 179 198 194 250 159 239 252 265 239 239 235 172
-3 8 26 32 49 66 78 93 110 121 110 117 139 155 154 163 190 199 204 131 106 168 193 208 202 114 148 159 183 209 169 146 167 197 195 184 226 192
12 25 32 37 47 73 89 102 115 129 140 148 157 162 163 178 207 214 214 192 174 191 215 244 212 162 155 149 151 158 158 128 136 80 69 98 143 223
29 38 48 51 54 72 90 101 115 132 155 166 173 178 181 190 203 224 231 220 199 179 183 173 162 139 143 133 120 142 123 130 96 74 135 51 92 126

GFSNE_con_3kmhel_063.txt.gz
Helicity
350 373 391 360 421 412 382 377 390 295 363 308 322 193 150 140 142 122 96 79 78 78 72 66 67 76 80 80 88 103 109 111 123 136 125 122 108 96
391 399 435 452 488 491 388 432 383 307 289 214 143 184 141 119 111 109 96 70 59 58 55 53 70 87 86 79 75 85 96 103 114 116 94 111 91 84
435 475 533 522 495 431 439 292 244 216 151 167 157 133 109 95 109 114 103 97 94 70 74 97 119 111 106 106 96 102 111 116 115 86 86 91 84 78
516 521 484 376 310 288 230 164 182 146 146 137 118 102 105 91 79 93 100 98 97 87 82 108 123 126 111 98 98 100 92 91 80 84 79 53 54 55
438 394 370 270 215 214 209 144 118 93 99 130 110 104 115 95 76 70 77 93 99 68 75 102 98 87 83 81 84 81 74 69 59 41 34 32 28 22
336 345 228 203 156 125 85 84 98 94 101 120 112 106 93 81 92 89 100 104 110 93 74 59 42 48 48 60 77 72 61 56 51 45 37 32 29 25
273 182 148 116 74 48 90 86 88 109 104 104 102 105 96 98 115 118 114 105 101 66 70 60 83 87 115 110 102 75 77 73 67 63 53 40 36 37
122 100 83 77 80 96 96 78 78 99 108 123 127 117 127 125 113 116 109 107 102 44 71 82 86 114 111 85 48 49 55 61 67 64 59 51 52 47
69 82 79 100 107 104 107 115 110 126 144 146 142 135 124 113 115 99 68 64 68 111 89 114 94 89 79 92 51 44 22 25 38 46 49 50 49 51
96 106 121 100 94 102 95 114 130 147 154 139 118 104 85 66 52 49 52 61 81 93 77 130 73 95 97 117 77 -4 -1 23 42 39 34 33 41 50
64 74 87 103 104 116 135 131 136 125 92 78 69 56 37 21 44 68 67 81 93 94 90 83 104 110 114 130 71 67 74 71 55 16 1 35 46 47
77 96 111 116 123 132 152 126 107 80 72 77 62 50 49 47 44 70 80 92 95 103 130 136 126 93 106 171 162 173 123 93 55 37 19 -7 -30 -96
115 136 148 144 144 119 103 97 58 36 57 32 40 47 48 51 61 71 80 108 128 177 161 148 201 167 210 227 212 200 164 154 95 76 41 11 -11 -42
132 131 125 129 116 92 68 28 16 21 27 37 43 44 44 52 61 68 68 92 131 172 154 147 249 206 210 224 246 216 190 195 123 98 51 21 7 -2
123 134 107 67 34 16 8 2 15 31 41 46 47 50 63 73 76 74 80 93 121 142 159 143 183 170 194 230 245 249 153 155 113 74 98 101 55 1
119 70 15 -11 -7 -4 4 17 30 36 40 48 58 59 63 69 74 77 88 81 86 106 120 137 140 156 202 225 217 234 180 193 167 167 135 138 99 75
50 -2 -21 -23 -10 5 14 19 32 42 50 55 58 57 61 64 75 95 119 112 120 143 144 163 149 161 212 192 205 205 185 221 222 198 150 169 155 117
18 -11 -16 -8 -1 2 10 15 37 44 53 58 69 77 79 79 94 111 123 134 147 151 157 162 145 131 130 170 229 260 275 280 255 220 218 259 260 175
8 -4 1 -0 -4 3 9 16 32 45 58 72 85 97 102 109 103 132 139 147 146 151 159 162 145 122 110 127 148 124 188 195 136 134 148 197 229 204
4 7 3 2 4 9 11 16 28 41 54 74 93 108 129 146 140 139 147 162 157 152 154 135 134 131 136 144 124 151 118 159 110 101 104 131 143 142
17 16 11 13 16 22 25 26 30 42 51 76 90 125 148 157 166 166 162 118 101 148 152 150 162 80 135 134 140 146 125 117 125 133 115 106 106 120
18 21 20 25 26 31 37 38 43 45 61 81 99 130 149 165 179 167 168 179 178 173 191 194 169 134 116 102 98 91 101 96 103 139 145 135 100 105
20 19 28 35 37 42 50 58 65 76 95 103 117 125 136 164 173 177 181 180 170 140 140 157 152 125 117 110 92 92 99 100 74 66 118 140 169 133

GFSNE_con_3kmhel_066.txt.gz
Helicity
404 404 355 388 396 409 389 409 331 354 389 438 402 356 267 259 160 178 154 131 98 79 78 65 66 81 81 84 88 91 101 104 108 110 125 142 122 132
379 478 442 409 390 372 407 447 465 440 440 329 367 390 301 197 157 126 116 117 67 60 53 54 63 66 73 69 55 50 67 97 111 124 126 125 149 160
384 465 459 404 347 393 392 373 363 375 293 322 227 178 148 124 111 111 110 76 77 61 43 56 75 66 46 36 44 73 88 65 47 56 73 80 94 104
390 387 388 353 366 349 329 305 317 261 282 172 192 179 146 153 155 115 112 106 95 73 74 89 64 59 65 75 93 84 60 58 52 65 59 75 67 67
371 364 326 286 283 248 224 234 219 208 142 155 151 132 113 121 128 116 115 110 106 63 84 99 86 90 81 63 57 45 32 27 33 41 49 55 57 59
330 310 279 266 235 237 198 191 141 116 112 111 117 139 126 100 96 79 98 109 100 90 106 80 61 58 41 45 35 25 35 54 66 69 71 70 68 57
326 295 245 246 203 165 135 116 127 131 135 133 118 118 113 98 117 135 120 104 102 109 108 81 79 74 67 54 50 47 59 76 84 85 85 79 78 75
229 235 212 138 105 111 103 85 100 111 127 138 137 112 104 135 128 106 116 140 140 54 62 59 66 74 80 62 35 33 38 50 62 71 80 83 74 73
165 147 92 82 70 80 77 88 95 99 104 121 121 123 123 122 144 100 85 74 60 52 59 66 60 60 53 55 32 42 40 45 61 74 82 88 84 68
73 82 89 92 82 90 87 95 111 123 138 145 125 99 94 75 64 53 44 42 49 55 62 80 57 63 58 73 62 34 19 44 74 75 60 48 49 35
73 80 101 98 92 84 123 140 135 137 113 86 60 37 20 12 32 60 58 65 74 66 64 71 61 67 95 107 59 49 79 67 61 39 30 25 11 9
78 96 104 115 140 153 137 124 109 89 65 41 34 33 43 48 57 70 83 89 90 86 103 114 78 58 58 110 83 100 80 76 55 49 26 23 11 18
110 125 137 134 131 120 90 54 18 1 18 24 40 50 61 67 80 87 88 118 126 160 114 109 151 112 158 178 147 137 126 119 95 74 31 24 33 43
123 128 123 106 79 34 -2 -6 -8 3 26 34 45 57 68 73 78 80 77 98 126 140 118 115 201 156 167 183 201 150 154 146 102 85 81 51 30 27
114 101 75 46 4 -10 -11 -4 5 24 32 43 52 54 56 54 51 63 79 87 107 128 140 111 135 137 176 219 214 188 103 125 92 84 96 91 74 39
88 69 53 11 -12 -12 -6 8 21 27 34 40 48 48 53 61 67 72 74 70 78 79 111 120 140 163 182 184 180 182 148 151 162 151 122 110 106 122
70 53 23 2 8 5 5 12 18 24 30 37 40 51 64 72 74 76 83 87 102 96 92 107 118 136 182 178 172 180 170 180 182 151 114 129 159 174
70 57 39 33 23 12 13 17 22 26 31 35 43 59 69 77 79 84 94 94 108 117 113 114 120 143 149 157 178 223 200 200 166 107 86 91 126 137
85 69 52 43 26 17 20 24 27 30 33 38 45 56 69 76 81 96 108 108 110 112 126 136 136 127 129 143 119 103 126 132 84 74 68 76 87 122
84 65 51 42 25 20 21 27 32 36 44 48 53 66 74 78 91 113 124 111 118 126 138 135 133 129 136 129 111 121 119 126 119 99 65 55 84 88
87 61 48 37 30 25 25 34 38 45 49 57 61 70 76 88 104 126 139 84 77 134 134 142 156 77 124 151 156 129 109 127 105 116 106 70 93 83
74 62 49 38 31 26 30 41 51 50 55 64 74 82 90 103 122 131 140 137 146 157 155 177 145 148 144 145 137 90 79 107 106 100 112 126 161 168
69 61 49 41 32 25 31 44 54 62 72 86 91 95 97 109 110 115 137 139 152 152 168 144 159 147 131 138 113 111 78 79 58 53 117 109 138 163

GFSNE_con_3kmhel_069.txt.gz
Helicity
301 464 521 440 429 486 608 597 331 244 300 313 348 419 424 416 344 260 227 261 155 87 76 77 89 81 69 68 65 76 79 85 84 78 88 95 112 139
407 424 407 383 388 400 366 424 416 247 177 218 298 294 298 320 298 222 179 94 101 105 88 95 90 64 69 71 64 68 71 77 86 95 89 89 94 115
358 351 360 343 332 318 304 259 262 203 193 214 239 251 266 266 208 179 139 165 127 74 70 72 59 54 54 47 53 61 61 65 57 48 57 60 61 68
271 313 319 310 261 260 191 210 215 247 215 230 223 212 171 139 128 116 97 84 98 73 66 72 54 65 61 47 53 58 58 46 37 40 42 42 42 44
250 298 288 262 242 211 219 158 171 199 228 236 210 120 110 101 97 109 115 105 99 80 89 81 85 87 75 77 70 50 41 37 40 46 50 45 41 40
371 364 291 267 222 237 183 195 174 146 133 125 111 124 131 101 95 91 101 139 114 100 103 89 74 65 54 62 34 30 32 44 59 64 52 42 36 29
341 296 211 178 172 168 182 126 171 137 134 126 95 86 109 112 117 149 142 133 121 127 125 91 87 80 80 48 45 43 59 66 59 55 54 48 39 38
224 164 134 176 164 188 155 135 101 64 93 106 119 107 113 155 179 163 166 123 97 67 78 65 88 88 93 85 34 36 48 55 54 56 56 48 45 50
173 94 118 87 85 65 67 89 94 95 97 121 135 146 149 151 139 92 73 66 75 91 70 85 113 91 100 84 36 37 44 38 42 50 65 75 67 55
53 40 17 21 69 84 86 91 110 117 123 132 122 87 68 71 69 78 74 71 68 72 80 111 99 83 92 103 62 19 10 44 62 69 81 96 92 76
24 29 49 73 99 103 108 131 148 149 107 69 29 9 8 24 43 74 80 77 82 89 88 82 97 92 101 101 76 13 47 59 51 51 65 62 59 65
75 93 120 126 133 145 141 133 129 82 32 28 32 33 35 54 50 101 96 104 112 95 134 134 119 82 64 163 99 131 106 72 36 34 34 45 52 95
103 119 129 140 132 123 110 79 47 9 14 31 39 44 58 70 95 114 129 139 134 172 149 129 182 116 151 177 146 143 124 114 104 86 51 32 39 65
125 131 131 117 95 75 46 15 7 16 31 37 43 55 65 73 81 91 95 111 140 145 117 145 240 172 187 180 206 157 141 119 101 94 85 45 23 23
118 111 85 75 61 34 20 17 18 30 36 45 45 51 57 57 65 77 90 99 113 116 114 129 194 198 231 221 211 184 109 124 105 86 98 103 96 107
107 89 86 69 51 32 31 33 36 35 38 42 47 44 43 49 59 71 77 85 102 98 99 113 118 157 193 223 225 221 177 162 163 137 132 134 136 171
85 86 90 91 80 60 53 42 40 39 46 47 48 47 50 53 59 66 71 84 113 98 92 107 128 158 211 225 203 211 168 149 150 142 113 126 126 108
90 100 107 102 88 74 61 50 43 39 42 48 51 55 60 67 74 81 86 84 110 115 117 110 107 117 151 203 178 211 173 169 130 82 60 44 82 72
98 114 117 118 95 76 65 53 42 40 40 56 69 69 75 79 69 91 100 95 108 116 130 134 127 133 116 134 140 139 135 132 108 109 127 105 89 85
108 111 119 112 89 78 70 59 51 48 49 60 71 78 83 90 96 111 115 115 108 125 141 130 146 150 153 122 106 136 132 152 156 145 120 64 59 74
112 115 113 103 87 77 74 63 56 57 54 70 81 96 108 122 118 129 124 68 50 117 131 144 168 84 137 143 181 168 161 158 137 110 93 60 66 67
111 118 113 107 88 82 69 64 61 52 53 62 76 93 110 112 119 123 125 111 116 135 138 164 166 178 182 152 180 162 135 132 131 103 98 85 103 143
131 127 120 105 88 76 69 66 64 65 64 61 88 107 109 115 125 138 135 140 137 150 152 145 163 170 185 175 168 148 122 122 107 84 131 109 113 126

GFSNE_con_3kmhel_072.txt.gz
Helicity
293 357 422 463 437 400 391 372 376 331 372 451 413 267 368 293 277 254 212 199 201 133 106 105 77 74 91 106 93 81 79 81 85 78 81 79 83 80
301 346 378 379 385 362 340 326 330 322 241 243 324 227 182 270 194 189 168 146 106 79 84 90 86 99 91 70 76 68 73 90 96 82 84 92 98 108
250 271 292 277 279 266 252 247 237 235 146 189 244 149 190 155 201 171 129 126 119 75 90 84 92 91 80 78 78 78 81 88 85 89 98 105 99 100
237 242 236 232 249 232 211 206 169 185 169 126 161 146 152 158 133 116 103 90 104 89 79 79 77 84 85 95 83 83 81 78 78 79 68 71 58 51
221 215 211 214 243 222 191 188 184 140 161 127 142 125 118 110 84 72 92 110 96 84 107 100 119 98 97 87 84 72 56 46 44 44 45 42 41 39
262 268 259 216 195 194 217 126 96 140 110 142 124 96 85 91 97 110 121 110 119 134 134 100 81 66 66 57 41 42 46 54 60 60 53 42 29 22
215 214 190 201 216 165 153 91 77 98 109 78 63 74 97 108 100 125 141 139 92 83 71 56 63 57 73 67 54 48 53 55 52 45 38 33 24 15
209 212 185 221 208 241 114 87 75 45 51 71 95 99 97 121 148 134 74 55 75 62 85 102 104 108 115 115 50 44 51 48 38 30 24 22 21 22
159 130 109 112 77 61 14 27 82 82 95 104 108 130 138 125 63 57 57 74 97 109 107 98 112 105 99 76 43 47 44 37 34 36 43 52 46 32
57 42 21 32 36 21 75 74 74 91 94 129 143 107 62 43 55 59 69 62 71 81 93 120 101 87 77 112 74 15 27 40 53 65 69 52 46 48
62 68 72 72 109 126 130 132 126 134 120 94 49 12 11 12 23 75 73 83 68 79 119 104 69 65 68 82 56 23 71 70 65 60 57 51 48 44
89 112 138 142 140 136 143 139 123 100 82 42 37 34 23 34 29 70 95 93 75 72 83 80 76 46 32 98 94 92 82 78 43 48 45 48 55 77
111 116 115 128 125 120 114 106 81 46 33 40 50 47 47 57 68 82 87 95 94 126 115 119 151 76 129 163 141 134 105 110 110 88 56 48 39 46
113 127 129 99 93 89 91 71 41 33 47 54 56 58 61 57 56 59 52 54 88 106 99 141 199 156 152 168 171 137 155 154 139 147 107 59 26 16
91 85 89 89 93 95 81 58 46 54 61 65 61 59 54 51 58 60 70 78 92 113 110 127 170 156 174 196 203 175 123 143 113 106 134 123 119 135
90 78 77 83 84 86 79 61 59 60 64 67 65 51 51 54 62 72 71 75 83 91 104 114 137 169 178 202 210 204 177 178 161 154 142 140 161 144
59 76 89 100 108 116 105 82 71 68 71 63 63 60 60 63 68 73 77 85 95 98 95 91 109 141 183 188 181 187 149 143 164 196 142 115 101 88
72 77 91 104 117 118 112 100 88 78 72 69 66 61 63 70 76 80 91 95 99 99 94 84 92 122 142 174 151 192 190 176 178 161 106 40 66 60
81 89 96 105 117 119 115 102 95 79 71 70 71 68 70 79 60 89 96 103 103 104 99 90 91 101 50 -11 166 116 147 153 126 142 134 122 93 91
93 93 90 103 116 118 109 108 99 86 81 76 73 78 83 94 100 107 114 98 105 110 104 86 89 95 137 26 74 188 145 163 184 179 145 117 142 130
72 90 105 119 129 122 111 106 102 99 83 77 71 65 80 93 99 119 116 58 58 100 103 60 105 68 125 131 171 217 196 175 166 149 123 100 68 74
82 97 109 123 137 136 118 110 109 102 96 87 75 77 78 71 87 90 111 118 120 125 126 105 119 155 159 120 87 156 172 158 153 120 124 110 94 116
106 114 121 133 142 143 121 116 102 93 82 75 83 89 67 54 102 118 124 124 123 122 121 -9 87 149 179 180 134 201 146 134 144 113 156 121 111 108

GFSNE_con_3kmhel_075.txt.gz
Helicity
197 233 312 387 407 391 345 327 269 260 241 284 337 367 368 318 312 300 248 172 146 91 83 99 80 90 86 86 79 89 98 114 107 104 102 99 96 96
184 215 238 238 268 271 252 238 244 216 185 200 210 216 164 220 179 195 181 114 80 106 113 103 90 82 87 92 90 92 98 99 100 105 105 101 114 112
215 213 234 236 226 226 204 198 182 204 201 183 162 151 132 129 162 139 133 95 94 64 74 83 91 71 79 93 100 101 108 114 114 110 114 111 124 140
209 236 238 243 239 218 192 194 196 200 176 175 152 158 142 132 144 123 79 71 89 90 96 96 108 97 101 111 104 106 104 99 98 106 116 102 94 78
194 217 211 211 197 210 223 211 195 195 187 142 181 129 124 131 97 78 115 95 121 112 111 109 106 87 86 81 82 83 76 66 61 51 43 34 33 38
202 215 201 190 177 164 168 180 201 214 222 260 126 124 124 98 107 125 118 145 151 122 91 75 65 49 41 37 49 63 64 63 60 46 35 30 24 23
198 201 169 169 165 155 162 152 132 162 132 135 108 111 111 97 112 139 158 145 101 60 68 80 70 71 79 66 67 66 69 66 56 50 41 29 23 19
115 113 140 157 178 201 181 149 91 68 49 71 42 84 101 139 159 145 88 55 80 56 50 113 92 107 107 102 64 67 72 66 60 51 37 35 27 20
59 60 64 61 65 68 59 51 49 87 106 105 108 114 127 136 114 63 48 61 71 76 80 88 93 103 75 84 60 45 57 74 78 74 65 51 34 24
66 82 97 96 97 105 101 110 109 88 95 123 119 105 87 49 42 50 47 54 68 73 65 96 66 83 86 119 43 76 81 95 96 86 67 51 42 34
87 95 117 125 128 148 156 151 139 150 139 122 87 41 7 7 22 79 71 87 77 89 88 63 48 54 60 65 67 91 102 90 82 80 76 60 40 31
80 107 130 146 144 131 142 140 142 118 112 93 58 37 37 40 49 69 83 98 83 85 54 42 59 9 33 70 109 115 113 102 73 76 64 53 60 86
84 89 98 118 110 107 114 115 101 87 71 51 48 54 60 67 73 82 83 85 91 87 73 73 103 70 87 104 128 132 112 160 162 127 100 95 76 63
76 73 71 68 82 88 97 86 80 76 68 63 70 74 69 62 62 65 59 59 72 79 75 90 117 106 102 95 133 128 134 133 126 134 146 96 73 46
61 54 61 65 73 84 87 78 89 90 83 89 82 74 60 50 56 58 63 65 68 86 78 93 115 109 126 128 159 127 67 104 86 97 160 160 135 162
54 46 46 63 82 88 100 105 101 93 95 95 88 70 65 65 67 69 70 75 65 85 92 95 101 111 118 133 150 149 121 137 150 156 176 165 167 168
49 58 69 84 97 112 123 128 123 113 118 108 104 98 84 74 77 72 75 79 81 71 86 102 96 112 145 139 128 144 136 139 158 194 177 150 115 109
59 64 72 80 90 102 116 125 125 126 121 121 114 105 97 89 85 85 86 86 87 74 71 86 100 93 96 106 109 133 145 174 200 185 163 146 112 83
68 72 73 79 90 101 116 125 144 136 121 115 110 102 92 93 71 94 97 89 72 76 101 124 112 85 32 -11 107 60 142 169 178 149 160 155 102 102
79 76 74 79 91 111 125 130 140 143 132 118 108 101 94 79 82 86 90 75 62 79 103 114 96 102 60 -51 8 72 123 186 206 191 154 133 142 95
72 73 80 90 103 120 135 133 148 146 128 120 112 98 104 89 82 88 67 2 11 57 81 98 101 49 92 -15 18 128 177 163 171 159 172 134 97 60
85 85 89 108 118 133 141 136 146 132 113 112 113 103 89 84 79 47 -1 23 65 98 103 105 92 112 128 51 8 13 59 185 178 186 133 97 90 105
97 103 112 123 136 139 141 136 127 108 95 79 91 85 84 80 59 -35 -28 -3 87 90 87 89 107 121 154 123 63 16 24 31 162 138 129 112 100 95

GFSNE_con_3kmhel_078.txt.gz
Helicity
183 192 189 208 226 237 268 289 298 269 188 186 260 235 328 335 323 364 228 159 117 86 76 81 89 95 96 117 107 102 105 110 99 80 79 73 69 68
179 199 218 213 208 231 236 233 223 222 241 220 216 227 220 219 209 158 122 102 109 84 83 120 128 89 69 71 66 68 68 70 77 86 87 87 99 108
216 207 199 191 207 220 230 238 222 171 184 195 199 189 184 167 154 101 131 133 135 93 78 77 61 77 68 66 77 76 78 93 94 91 93 101 112 110
191 194 168 162 199 190 181 193 175 157 145 181 182 155 168 133 189 147 155 129 90 73 73 71 83 86 88 97 89 99 106 91 83 76 67 59 57 61
171 161 143 160 185 159 161 161 158 155 145 140 157 152 191 216 142 136 131 111 95 84 100 106 100 88 69 62 64 67 64 62 61 58 46 36 31 35
153 151 139 163 160 157 158 160 161 149 151 175 157 186 176 118 138 136 136 140 132 117 97 90 77 46 41 47 55 63 64 65 64 61 53 42 36 31
150 134 126 127 141 127 100 114 139 153 153 137 138 118 133 127 97 114 135 138 123 102 64 43 57 62 64 61 63 65 72 72 67 60 52 43 37 36
75 70 87 89 90 110 111 109 110 103 108 107 105 109 88 97 121 155 162 138 113 45 55 80 60 77 76 87 72 74 76 77 75 66 54 49 41 30
45 52 69 80 96 105 113 126 124 128 117 130 136 125 137 140 149 148 105 76 79 69 54 93 72 87 73 80 48 64 90 121 119 115 101 86 61 45
54 64 81 94 99 128 144 147 148 148 139 133 138 132 126 109 98 64 55 63 64 75 75 73 78 78 71 95 79 120 155 142 98 103 79 59 57 45
62 70 94 107 123 130 139 150 153 156 153 162 123 93 67 30 26 82 80 94 85 89 82 84 65 62 78 74 77 82 110 111 99 90 70 64 58 49
54 67 83 98 104 100 115 116 120 121 128 117 101 77 45 42 66 69 78 105 101 109 86 72 88 60 61 59 78 117 140 111 84 78 66 76 82 103
57 60 63 74 70 75 91 96 93 102 100 94 84 71 69 81 82 78 77 89 100 98 77 80 98 92 85 98 100 127 113 145 153 117 92 100 108 87
51 48 46 45 58 62 82 76 84 110 105 106 108 107 107 104 92 79 63 62 73 78 69 73 102 113 101 92 94 95 108 107 107 129 137 124 129 98
47 36 37 44 56 70 83 84 114 113 117 126 122 115 106 88 79 82 77 69 66 73 59 82 89 86 104 104 92 83 54 74 61 63 144 157 170 164
44 43 44 58 75 86 99 107 114 118 130 129 121 107 104 105 110 105 101 91 78 80 89 90 103 107 102 121 116 97 69 66 77 85 115 130 134 129
59 56 66 79 89 101 109 112 120 130 146 140 144 138 131 125 119 108 105 96 85 82 84 106 119 105 106 119 95 96 84 67 67 111 113 92 92 109
66 66 68 76 86 100 111 118 128 138 149 149 151 145 139 133 127 129 126 115 87 87 84 99 123 86 98 94 105 108 115 60 79 118 136 127 103 87
74 67 71 79 89 101 112 121 126 149 152 152 155 149 135 128 105 110 103 93 76 80 82 87 87 66 48 61 112 37 68 46 -3 63 137 152 120 112
82 77 76 82 92 106 117 122 127 143 154 153 151 139 123 117 105 99 100 87 73 82 44 78 136 102 87 90 101 110 78 54 53 25 120 126 156 111
78 80 87 92 101 114 119 118 140 147 145 151 145 121 112 104 79 88 74 25 -13 -57 -34 -11 104 37 69 97 125 87 93 74 118 169 68 75 47 94
93 93 106 111 114 117 120 130 139 135 131 133 115 109 97 84 63 60 48 12 -38 -40 -21 10 89 86 92 93 88 5 42 76 121 121 118 75 72 147
104 110 124 124 127 126 137 140 141 150 133 122 100 83 90 64 72 69 49 32 28 -5 3 79 87 100 107 111 95 96 13 32 37 72 159 97 88 82

GFSNE_con_3kmhel_081.txt.gz
Helicity
197 195 185 198 207 207 223 209 219 205 189 233 213 176 162 210 205 302 317 210 158 109 92 70 62 89 111 127 117 96 113 112 94 74 58 52 51 53
194 207 201 180 212 222 209 203 223 245 221 216 186 148 137 179 224 245 202 156 113 71 87 101 103 118 107 74 66 60 60 59 54 60 60 58 65 92
193 174 172 182 199 195 201 199 213 196 202 188 141 128 141 154 167 167 156 173 128 113 110 115 86 59 64 64 71 78 70 64 69 72 70 69 78 85
144 146 175 170 198 189 181 192 176 160 165 169 136 136 145 146 176 153 153 230 118 100 69 71 70 68 74 69 73 69 50 40 53 45 36 30 35 46
170 192 182 173 182 170 175 165 123 136 150 153 168 157 163 166 172 186 180 106 104 100 107 95 95 85 73 54 43 42 50 48 42 39 38 41 47 50
202 165 141 123 114 114 119 119 107 136 152 164 175 160 164 172 168 134 144 140 108 110 96 89 117 70 35 29 33 43 44 42 38 40 40 37 36 37
169 128 94 81 84 72 66 79 90 108 125 148 157 157 150 152 146 142 139 131 133 135 143 115 44 33 41 54 59 50 47 46 43 40 38 36 35 35
74 62 81 82 88 98 105 121 122 124 146 162 174 194 188 180 172 175 168 157 154 140 101 54 42 60 69 70 55 45 43 47 50 51 55 54 49 43
44 55 63 65 82 92 106 124 148 165 155 155 181 188 191 173 181 175 154 147 131 61 55 87 62 76 71 60 30 49 73 111 135 108 69 56 48 35
54 56 66 66 67 90 101 116 130 140 143 154 168 156 149 145 152 141 114 84 73 69 49 88 86 68 60 50 58 99 138 144 96 79 71 56 49 50
56 59 64 78 81 92 99 110 120 130 142 159 142 129 125 108 75 96 97 121 113 106 78 78 88 46 71 93 91 70 50 69 84 83 70 64 49 52
56 69 68 69 74 71 89 91 98 99 116 121 116 112 105 89 96 98 104 129 122 130 94 105 82 71 86 88 88 77 79 73 73 66 58 68 58 97
58 56 58 59 52 56 73 73 74 82 91 99 107 114 116 115 117 115 108 119 134 129 108 98 92 93 85 79 82 105 88 106 130 106 71 75 68 74
54 53 47 40 47 48 65 52 65 99 95 102 111 122 134 127 117 117 107 96 100 100 90 101 105 100 102 91 93 98 77 91 92 114 128 74 66 56
48 38 30 34 50 59 62 69 106 101 106 119 127 130 130 114 113 122 124 112 97 88 94 101 91 77 94 105 109 104 65 72 69 62 98 104 104 109
41 44 39 45 57 61 74 94 103 109 120 129 134 133 131 130 126 135 140 131 124 126 94 83 92 124 105 101 103 95 91 84 83 72 93 91 93 114
60 57 63 72 76 82 93 104 117 126 141 128 135 141 139 145 152 149 146 134 126 131 124 136 119 123 126 112 94 134 100 82 94 113 96 58 55 70
74 67 68 73 77 88 97 110 126 123 136 140 139 145 151 157 156 166 160 145 108 102 98 109 124 108 97 62 111 102 98 117 129 136 90 11 36 58
84 77 75 78 83 93 105 124 133 127 142 138 141 150 155 147 131 129 126 119 85 91 90 90 79 37 -88 -53 89 58 62 136 124 70 35 28 11 59
92 88 84 84 94 109 122 134 125 135 142 142 149 155 162 141 136 121 106 85 67 73 73 49 17 19 9 58 68 92 80 89 132 94 9 33 72 41
96 92 95 96 105 116 131 136 132 134 147 151 157 170 153 155 113 99 77 28 21 45 43 44 56 28 63 77 104 111 100 84 98 105 25 8 -11 8
111 109 102 110 122 129 140 144 133 129 150 171 159 153 141 150 122 90 73 58 59 69 78 89 90 93 102 86 83 79 89 105 107 96 86 20 -78 -0
119 123 118 117 132 145 152 148 148 139 148 168 187 147 139 128 130 102 81 73 65 61 72 77 86 99 94 92 66 87 96 119 126 132 163 90 76 22

GFSNE_con_3kmhel_084.txt.gz
Helicity
181 179 189 190 193 192 187 197 196 209 164 171 190 158 141 124 150 165 195 259 273 216 157 103 53 57 50 94 89 99 103 78 54 51 40 30 31 39
170 183 186 193 215 207 192 189 185 181 186 175 176 153 143 149 154 169 186 173 137 128 127 101 91 112 122 89 76 69 60 57 59 52 45 47 42 57
201 198 207 208 208 204 197 176 184 183 174 183 159 150 151 148 157 166 147 133 110 75 112 79 99 78 69 67 72 81 80 70 58 48 44 41 40 38
198 194 187 191 195 181 163 165 148 138 133 136 126 140 152 161 156 164 156 121 93 93 81 94 77 85 103 92 86 81 67 57 43 36 32 30 26 29
187 166 164 155 146 148 138 142 132 120 110 118 119 118 123 123 128 136 135 133 101 83 100 102 98 90 86 82 85 85 50 39 34 27 22 20 20 23
186 189 149 129 127 116 90 75 69 83 89 106 111 112 114 121 143 145 142 128 116 107 101 101 112 131 113 72 36 37 38 29 26 22 17 17 17 15
209 155 121 92 95 87 70 78 84 87 98 118 125 133 144 156 162 152 162 152 128 125 139 147 140 89 34 38 48 43 37 32 28 29 27 22 22 24
130 105 102 123 110 101 96 101 96 96 113 126 135 150 154 166 174 178 171 174 183 153 154 161 68 50 50 52 43 46 42 34 32 25 32 46 44 38
59 71 85 81 86 87 100 126 129 130 123 111 126 130 146 152 176 172 157 154 138 119 101 115 57 85 61 63 36 33 42 52 82 64 39 36 29 28
64 69 70 64 63 87 95 105 110 116 103 110 120 116 119 127 130 129 123 112 101 84 66 119 111 88 91 60 58 75 70 104 89 56 44 36 33 30
61 57 69 74 79 87 86 90 94 94 100 116 108 108 108 95 93 105 105 134 129 123 98 113 113 105 107 101 96 107 88 52 58 71 54 39 34 33
64 66 63 62 74 71 72 72 85 74 83 84 84 88 101 113 128 116 130 147 142 152 119 144 115 102 125 94 124 91 72 72 68 51 46 45 50 76
54 54 55 57 56 55 65 61 59 65 73 78 86 94 109 126 134 129 140 151 159 149 121 138 133 114 120 101 79 86 90 84 91 93 65 68 63 56
49 49 45 44 50 50 63 46 65 86 82 92 97 103 115 123 127 129 124 126 117 118 105 127 142 138 127 98 87 93 72 88 87 105 110 62 44 35
50 45 45 35 53 58 51 58 91 85 92 102 105 106 109 107 115 130 129 129 116 112 110 122 127 110 111 111 120 107 57 86 83 66 82 82 77 85
61 56 42 47 51 53 62 77 79 87 103 114 112 103 107 117 129 137 152 140 138 154 118 105 107 140 122 110 107 112 114 96 96 71 65 91 91 104
64 57 56 59 59 61 66 73 84 99 118 112 113 119 113 121 131 146 152 141 139 137 130 154 119 112 129 127 103 114 96 54 -15 58 79 59 73 89
77 66 64 64 64 66 67 77 100 109 115 122 131 125 122 126 131 158 168 147 131 124 98 93 89 78 74 72 126 73 40 45 94 115 137 105 36 80
85 83 78 76 73 71 76 94 100 114 130 125 122 126 128 133 119 153 154 143 121 98 89 100 87 93 76 61 81 59 76 109 113 72 89 130 34 34
97 91 90 91 90 85 82 97 106 111 130 131 131 132 139 137 136 155 156 150 120 103 93 112 123 133 122 88 65 108 81 86 111 95 81 106 114 68
108 108 104 101 97 97 95 103 121 126 131 137 142 140 149 147 140 151 143 102 87 94 80 90 109 53 102 95 107 115 112 71 79 99 110 95 -29 7
126 121 119 120 117 116 110 118 131 138 135 139 152 168 178 163 154 151 154 148 135 132 109 103 99 120 116 103 87 80 77 75 85 71 53 54 74 -2
136 136 129 125 128 128 130 133 145 144 147 149 156 157 182 194 155 153 154 157 139 119 110 100 102 122 109 101 66 85 75 79 123 128 136 96 70 63

GFSNE_con_3kmhel_087.txt.gz
Helicity
229 200 175 176 188 187 189 173 182 155 143 170 136 133 134 137 138 128 137 167 196 212 210 147 122 117 111 106 111 97 72 52 51 62 42 10 5 20
193 171 171 188 192 194 181 180 187 183 196 196 152 136 129 118 127 123 126 130 157 174 165 132 90 135 106 97 99 60 76 65 61 52 55 49 56 53
199 192 200 194 184 168 160 180 192 172 160 158 141 116 105 98 103 107 98 98 100 128 117 123 98 85 95 79 78 86 86 81 69 59 54 65 74 67
244 220 191 160 161 152 163 163 158 139 132 128 97 86 89 95 97 96 100 84 85 98 113 109 99 115 131 118 101 90 75 67 68 67 51 42 38 42
210 177 160 143 149 151 149 122 101 91 85 86 95 89 100 98 103 108 103 98 88 92 106 99 82 76 82 98 101 98 96 76 40 32 33 35 36 38
197 182 159 147 131 123 89 72 77 89 96 104 103 104 108 108 113 111 117 125 116 113 104 93 92 111 117 117 108 96 56 36 33 33 36 33 34 39
195 174 149 122 105 73 61 78 86 92 97 107 112 108 114 119 119 120 120 120 125 133 133 124 119 111 114 107 73 44 40 39 38 37 40 39 34 40
153 146 130 119 83 84 99 111 104 92 97 97 101 110 118 115 111 115 116 116 121 124 114 114 95 103 74 54 51 43 37 37 43 44 40 62 63 49
101 78 79 72 79 89 110 124 120 114 108 88 97 99 105 96 103 100 100 98 99 96 80 111 79 93 61 55 44 38 50 57 95 102 74 56 48 39
57 62 61 66 76 81 83 91 94 99 83 83 93 88 84 77 71 76 78 70 65 75 69 113 104 107 88 73 81 98 87 105 105 107 62 52 52 40
62 57 62 65 78 83 76 79 77 77 83 88 82 85 71 58 60 70 69 77 94 109 100 116 124 124 131 118 101 119 132 89 77 67 74 60 43 37
57 58 65 65 71 73 72 64 68 61 60 60 63 71 85 97 106 83 90 94 106 121 136 133 131 132 147 121 107 108 106 79 80 72 55 62 60 59
50 53 58 59 62 63 66 54 58 56 59 59 70 78 88 98 101 101 104 115 120 132 152 137 132 132 141 141 90 92 86 102 75 76 85 78 84 69
48 49 47 51 57 52 48 38 58 60 57 68 81 94 105 108 102 97 100 105 103 113 113 123 137 130 121 99 84 79 67 61 65 85 102 95 57 47
46 45 42 35 54 47 42 45 67 56 66 77 89 100 106 103 90 90 94 98 105 111 109 106 101 88 91 88 78 59 43 59 44 22 77 80 69 60
50 52 49 53 47 52 62 65 56 56 66 81 97 105 101 96 95 95 98 106 115 141 128 106 95 102 82 74 68 73 56 38 51 8 -30 -13 41 56
71 67 66 61 63 65 64 61 59 64 78 92 101 105 102 98 94 101 112 121 124 131 149 144 87 61 74 79 78 82 61 49 39 24 10 15 35 39
77 74 68 65 66 71 68 64 62 61 74 91 103 111 105 94 92 101 123 127 114 125 123 125 107 71 51 47 92 51 48 50 37 35 36 23 29 40
76 74 77 79 77 80 76 72 74 71 88 101 108 104 100 97 89 98 112 120 108 116 120 124 130 109 53 38 46 54 60 59 66 61 56 53 53 67
96 83 80 85 91 90 86 84 73 73 85 100 110 108 104 97 97 99 111 118 114 109 110 129 147 130 111 66 49 83 77 76 70 66 57 52 65 14
103 97 95 102 103 100 96 93 83 79 86 101 116 115 110 111 104 100 101 90 100 118 110 119 135 98 113 101 90 97 78 47 37 57 63 62 58 54
120 118 115 119 115 120 117 109 99 89 81 93 108 115 115 124 113 115 106 107 120 134 127 115 113 122 142 145 104 83 93 67 57 44 24 24 67 68
137 136 136 139 152 141 140 145 140 116 102 89 102 114 124 124 118 117 115 116 124 129 130 120 117 117 120 123 106 104 83 75 77 95 99 69 54 29

GFSNE_con_3kmhel_090.txt.gz
Helicity
300 286 242 213 202 180 189 196 173 124 97 154 165 166 154 149 159 149 169 221 193 190 193 189 178 176 134 109 106 93 101 132 128 91 70 68 57 52
292 271 235 208 191 195 199 187 176 158 175 197 171 136 113 110 118 121 133 131 151 143 142 149 149 156 127 105 118 110 119 104 91 83 84 86 89 92
270 236 217 187 190 186 171 164 151 153 148 157 129 111 80 61 60 66 81 91 84 108 105 124 126 116 110 103 91 110 93 86 91 98 103 113 139 135
238 221 189 190 190 170 156 145 144 141 125 127 97 71 73 73 74 85 97 102 106 122 121 113 122 137 135 119 102 79 83 93 110 133 134 130 99 71
213 207 198 173 164 145 127 121 107 91 82 78 88 77 80 85 90 98 113 105 97 103 97 96 94 87 84 81 81 79 95 118 122 112 74 56 53 48
233 203 187 156 133 122 107 97 69 80 85 91 91 86 90 96 93 99 95 94 94 94 87 89 80 93 77 74 74 80 97 107 76 53 52 51 50 55
203 193 176 161 150 119 80 74 77 74 79 90 92 94 92 87 96 100 92 84 84 90 81 70 74 72 69 64 62 68 65 61 61 63 60 56 54 57
175 183 174 156 125 99 110 116 93 80 95 102 97 89 93 97 92 91 88 91 94 87 80 75 77 82 78 65 74 53 55 59 59 61 60 66 89 71
154 144 129 96 82 81 95 102 119 134 130 93 90 92 89 87 96 80 83 77 71 73 59 74 86 84 82 67 55 43 42 54 73 125 110 82 64 54
123 96 65 59 63 54 57 83 91 97 101 99 100 91 92 77 73 72 66 60 54 67 68 83 99 100 96 81 90 84 93 92 132 119 97 75 68 48
77 59 52 56 66 54 66 74 82 91 98 97 98 91 74 59 54 69 72 76 86 89 84 93 120 117 112 113 113 102 120 125 93 81 69 62 60 44
58 55 57 61 57 62 60 61 61 69 67 63 62 62 62 88 83 62 75 88 98 92 110 106 125 147 153 139 112 100 100 89 65 57 56 51 54 61
51 50 49 54 54 58 60 62 68 68 73 67 60 65 72 78 83 93 96 99 97 99 133 121 127 135 146 139 117 114 88 79 78 64 49 45 55 67
48 50 51 48 53 53 57 67 63 70 73 64 66 78 83 90 92 91 93 94 93 89 94 120 133 139 129 112 113 102 85 78 79 77 66 68 52 39
55 60 66 51 54 55 49 46 61 65 65 68 75 83 90 100 88 80 84 88 85 82 90 103 106 107 119 124 105 94 70 62 56 57 70 58 40 38
60 62 62 60 51 48 50 59 58 55 57 65 76 92 99 94 90 87 89 96 94 96 121 113 111 111 107 98 89 98 62 49 58 53 52 51 51 46
65 68 67 65 58 59 60 60 61 60 69 74 86 88 90 97 93 90 92 103 102 97 102 127 131 105 86 79 95 92 68 61 56 59 56 50 50 37
72 72 66 63 62 65 68 71 72 70 73 82 86 89 94 98 96 94 97 109 108 100 103 125 141 143 120 80 83 67 57 64 58 61 59 46 50 46
64 65 63 71 75 78 79 80 82 84 103 95 93 96 97 102 98 98 106 111 108 103 108 124 138 150 137 114 87 91 77 90 77 77 78 69 56 68
64 63 70 84 91 92 94 94 98 109 112 108 103 98 98 99 99 101 105 110 106 102 106 124 149 165 148 142 134 103 99 81 99 86 76 77 68 37
96 81 87 99 106 108 111 114 114 119 127 126 112 102 98 97 98 103 102 90 93 109 106 117 142 162 156 167 162 121 95 51 68 96 98 85 80 72
107 104 111 118 123 130 134 139 153 157 145 150 119 115 103 105 104 106 105 105 113 120 113 116 130 139 160 178 149 108 89 78 69 45 32 31 79 75
126 128 138 145 148 157 156 158 166 182 160 182 128 122 119 115 112 108 102 107 116 124 127 117 121 129 138 158 132 123 85 78 86 79 88 55 30 4

GFSNE_con_3kmhel_093.txt.gz
Helicity
269 288 297 289 251 225 188 171 176 183 155 221 162 140 147 142 158 169 187 206 195 190 170 150 148 145 146 137 150 134 121 112 114 133 137 95 78 71
295 317 314 277 256 208 191 184 185 197 192 237 189 145 121 89 110 113 110 116 153 144 129 122 125 122 116 125 128 113 110 136 146 131 107 102 108 120
254 258 262 242 219 188 180 192 185 183 180 193 176 131 94 66 52 62 73 80 88 111 104 111 114 122 127 138 143 145 135 132 123 107 113 127 154 156
264 270 272 232 193 152 170 174 175 156 170 175 137 97 64 66 64 66 78 84 94 106 115 125 133 132 130 128 132 121 108 108 116 136 141 152 153 147
229 226 199 186 187 182 175 155 149 135 142 116 97 79 74 61 65 75 96 98 101 90 91 97 100 88 94 101 115 122 127 132 134 135 137 110 75 60
269 255 228 207 172 157 145 136 122 116 89 94 88 85 76 82 86 99 89 89 96 87 82 81 74 76 68 69 81 102 114 118 111 90 62 52 53 59
220 222 216 213 208 162 129 122 103 61 70 99 82 87 92 83 100 111 113 93 87 83 72 56 70 55 55 61 62 82 89 83 79 72 65 61 60 55
218 200 189 185 186 183 172 159 132 83 101 100 111 83 107 119 100 105 105 87 100 79 73 60 86 58 70 69 122 92 82 76 71 67 71 76 87 91
210 187 171 175 148 138 114 115 135 146 143 99 94 119 107 104 109 88 91 79 84 91 76 78 80 66 81 76 97 94 71 74 78 101 125 107 96 87
148 138 126 120 99 62 77 85 91 124 145 125 138 129 126 90 89 76 65 75 71 89 86 94 89 73 85 88 125 109 119 114 126 129 116 101 91 74
131 105 104 78 58 55 71 74 91 97 118 130 132 118 111 99 93 78 82 98 100 104 99 100 101 79 84 103 130 118 114 141 111 98 79 58 48 43
100 99 80 58 51 57 63 69 76 76 83 80 78 84 81 92 85 82 98 104 115 105 111 107 101 103 109 132 128 137 140 111 97 71 55 41 34 58
72 59 51 52 49 72 91 80 69 99 75 69 78 80 71 81 86 111 119 110 109 111 111 108 99 93 115 119 115 137 143 133 116 85 57 41 35 48
57 56 59 47 54 71 79 85 88 90 73 70 76 75 76 96 102 117 118 110 99 92 85 112 105 110 116 103 108 142 162 126 111 104 85 54 43 33
62 55 58 53 60 64 63 61 77 66 71 80 77 91 96 120 120 94 90 89 87 83 79 93 104 93 112 122 115 119 146 152 100 114 109 80 64 59
61 59 65 59 50 53 68 58 62 60 72 72 84 100 106 89 86 97 107 103 106 99 92 115 110 115 111 108 108 110 132 147 126 94 86 67 68 79
58 79 78 69 67 67 63 69 72 72 77 72 104 103 86 87 94 101 110 113 115 110 114 113 118 115 105 98 109 127 128 133 124 100 82 73 75 73
69 76 69 70 71 71 78 81 78 72 84 100 103 95 97 105 94 99 113 123 117 108 110 118 129 134 122 120 142 130 120 128 129 102 89 96 88 95
73 72 75 83 82 85 99 103 104 102 110 122 114 112 117 112 92 101 106 111 119 116 111 119 144 165 146 135 120 130 154 150 151 146 137 131 113 95
82 80 85 89 101 103 109 115 125 140 148 138 128 145 145 137 120 118 113 118 109 107 107 121 138 156 163 174 160 127 103 137 142 124 119 118 101 43
101 94 100 108 109 116 125 134 144 152 155 163 151 162 166 171 129 128 121 87 97 134 128 124 125 99 191 195 165 150 131 70 88 139 138 116 96 87
113 115 129 128 132 144 149 156 164 158 168 186 186 185 179 177 156 141 129 126 130 131 126 130 139 153 173 190 157 124 105 100 85 48 49 53 125 139
136 143 142 151 162 164 172 175 175 179 187 197 208 207 202 173 171 140 132 133 138 141 141 128 142 159 162 168 145 152 110 98 110 100 108 71 54 80

GFSNE_con_3kmhel_096.txt.gz
Helicity
194 214 244 253 245 226 232 237 202 181 170 206 200 164 141 130 149 145 162 171 163 156 143 131 125 131 137 132 133 139 136 144 137 126 125 123 87 76
227 274 280 289 268 266 236 229 201 191 209 253 234 173 131 110 93 113 103 106 114 117 121 120 108 106 101 100 105 108 125 140 141 136 127 116 120 148
214 232 261 235 266 256 213 191 183 185 218 250 225 167 134 85 71 75 61 79 97 109 104 101 106 109 112 125 137 146 153 158 146 130 132 144 165 150
239 245 235 229 209 209 144 175 169 208 207 201 182 157 121 85 70 72 72 93 93 99 115 119 121 119 112 118 120 130 137 146 160 166 170 181 171 148
203 220 224 230 233 199 176 197 193 181 184 173 156 129 90 68 73 81 83 87 80 76 85 92 98 94 92 100 112 122 130 135 141 146 148 137 106 75
248 210 200 199 193 190 193 165 156 155 153 151 116 92 92 89 89 92 82 75 76 81 71 67 81 78 71 74 80 92 104 116 119 116 104 93 83 71
246 250 241 226 204 167 164 154 145 144 137 124 98 94 98 103 97 91 98 82 80 67 59 69 75 69 65 74 76 86 88 88 92 95 93 89 79 72
228 225 214 207 191 214 211 190 137 115 112 98 79 96 92 112 113 108 98 88 70 58 69 57 69 63 63 85 95 90 83 81 80 81 87 90 88 100
219 214 204 189 191 184 184 177 167 146 112 87 102 99 119 110 115 107 91 77 73 56 68 75 66 72 66 76 87 84 74 75 78 92 133 126 111 105
164 163 164 177 155 147 135 125 121 143 150 146 154 146 126 108 98 84 74 67 73 85 83 89 79 72 74 81 91 95 99 104 116 165 147 127 109 96
142 130 139 146 115 110 94 68 95 113 125 146 143 137 131 126 96 94 87 100 101 90 93 88 87 80 79 85 77 94 99 115 134 123 108 92 75 65
147 158 99 98 90 65 59 62 81 73 94 115 125 123 119 105 105 100 87 108 111 109 90 106 103 106 115 100 104 110 102 105 103 92 73 70 55 75
111 116 99 69 60 56 70 55 63 74 63 77 95 96 93 92 100 106 109 109 120 119 102 110 114 104 114 101 91 106 112 123 120 95 70 64 65 53
88 71 57 48 44 57 79 83 76 80 83 91 89 78 78 83 99 109 107 112 117 108 106 111 111 117 114 103 99 103 89 96 115 116 101 65 56 50
67 55 49 37 39 54 65 66 71 93 83 85 80 79 92 104 112 90 72 83 92 89 94 88 104 95 105 109 92 100 108 141 123 154 137 114 88 74
62 72 63 56 59 62 67 61 81 72 74 74 71 87 111 107 86 73 89 88 91 88 86 101 110 126 108 94 88 83 117 117 144 137 142 118 106 101
77 88 92 90 82 83 77 64 70 73 82 84 91 119 100 86 67 76 95 89 95 92 106 113 106 102 106 100 100 104 116 154 156 146 146 125 115 112
82 86 79 78 81 77 71 75 86 73 85 82 92 111 105 94 90 97 109 102 98 109 108 108 108 104 92 71 96 111 129 163 166 142 145 141 108 125
75 74 81 82 80 81 87 98 101 101 105 107 112 110 113 117 104 135 114 95 108 117 107 106 104 112 104 94 101 73 164 192 164 145 160 177 127 96
99 90 89 94 98 97 100 116 122 123 126 132 143 146 142 159 157 151 140 125 124 133 103 98 103 113 113 123 121 119 119 129 149 138 138 135 112 41
97 116 105 106 106 114 115 117 132 145 160 175 155 160 161 191 179 179 154 84 101 141 125 132 128 64 127 146 139 133 148 103 100 132 149 141 115 67
119 119 122 129 132 136 131 137 152 137 158 168 163 164 171 190 190 191 167 136 116 118 133 117 103 140 151 143 116 117 107 123 133 99 66 65 133 127
142 147 150 153 154 156 162 168 165 166 172 175 186 188 204 186 192 200 169 146 145 137 136 134 138 146 153 155 115 119 114 112 124 112 128 117 78 57

GFSNE_con_3kmhel_099.txt.gz
Helicity
171 171 201 194 214 222 241 241 225 245 188 221 198 166 153 144 144 138 172 167 172 158 126 132 123 128 139 136 127 111 99 92 91 110 111 106 94 92
165 157 191 201 217 219 216 232 236 205 231 242 211 199 158 153 110 116 130 138 120 100 105 114 99 89 94 98 96 96 100 98 109 119 124 114 115 113
149 164 180 204 211 212 232 217 228 236 209 261 268 221 181 143 114 102 103 83 79 77 84 101 91 87 100 116 126 121 120 116 118 114 119 132 148 132
144 164 192 190 216 208 202 205 215 222 207 250 256 230 181 135 116 86 67 77 74 76 95 119 121 114 111 113 105 101 98 96 110 117 126 144 143 129
151 159 182 194 193 193 209 195 183 194 195 214 229 210 174 142 108 87 76 85 76 83 100 97 93 82 89 91 92 95 91 88 90 98 111 118 110 98
178 168 165 173 175 174 191 178 168 183 179 202 191 175 155 115 105 105 90 89 93 93 89 70 69 74 75 67 71 79 78 76 73 82 87 91 96 98
205 213 207 187 176 155 174 173 192 187 183 181 162 155 111 114 101 98 94 100 95 80 67 69 69 68 61 62 74 71 67 65 69 81 88 91 94 98
179 201 206 199 176 162 152 144 142 172 184 154 130 99 97 101 115 118 119 107 75 66 65 62 64 64 67 68 77 77 73 63 60 68 80 89 102 117
169 176 192 193 191 181 182 217 219 171 118 100 87 72 100 90 126 121 104 89 79 60 64 71 79 85 88 80 84 82 67 53 54 66 91 118 116 120
164 172 181 176 172 178 178 189 178 161 127 89 85 85 91 94 95 82 88 99 99 86 74 86 92 84 80 85 87 80 69 77 79 110 123 113 112 105
154 150 153 142 112 129 150 144 147 141 111 109 105 120 109 99 98 129 111 110 98 84 86 86 93 86 82 86 93 89 94 93 98 90 88 86 91 83
149 120 102 105 82 94 113 112 84 72 93 125 133 153 139 102 105 86 81 101 100 97 73 93 91 98 98 96 100 104 102 110 113 105 94 95 87 101
119 128 97 76 67 72 58 69 48 63 68 92 106 113 110 104 103 106 104 91 95 92 81 95 96 98 105 103 94 106 121 104 95 96 97 99 94 83
90 87 71 66 54 47 49 32 36 63 91 93 103 87 88 91 91 96 100 106 97 85 91 99 94 104 116 110 108 106 77 87 107 110 100 90 89 82
86 62 46 47 31 39 48 48 62 86 95 103 88 77 75 77 89 94 83 77 78 75 79 93 98 93 104 109 107 111 114 117 102 133 111 105 102 101
64 60 51 52 53 52 57 55 84 85 87 86 82 90 117 109 88 79 71 63 77 79 70 72 89 115 111 93 95 92 99 102 127 119 113 121 119 128
96 101 101 92 82 73 63 63 79 75 72 77 98 108 97 96 86 82 83 83 85 90 86 95 99 101 99 103 95 100 92 88 135 141 128 106 136 138
94 93 77 68 71 70 69 70 75 58 70 84 99 106 105 100 87 92 98 99 100 93 87 93 111 114 95 81 67 74 83 99 137 130 134 110 62 126
105 94 68 66 68 71 74 78 77 79 88 87 110 112 119 109 97 112 129 142 129 113 92 101 119 126 104 97 84 76 114 126 122 127 127 136 101 83
127 96 52 71 76 71 75 83 89 96 99 108 115 111 123 149 154 155 161 165 157 134 102 119 127 111 106 91 81 96 95 124 137 123 117 112 103 40
113 107 97 101 72 70 94 105 107 108 115 131 119 136 146 166 151 153 157 128 139 156 114 119 125 66 104 98 92 116 130 94 108 132 131 99 94 81
111 108 121 106 107 111 116 116 120 116 123 128 129 156 178 177 154 164 174 178 152 165 139 141 124 131 148 131 90 87 116 110 89 78 66 71 132 101
156 119 102 132 131 121 121 129 130 133 143 152 180 178 186 177 177 184 181 186 179 160 138 127 137 153 144 136 77 96 88 99 115 106 130 111 82 58

GFSNE_con_3kmhel_102.txt.gz
Helicity
103 123 128 125 188 190 210 233 202 241 232 255 229 204 188 153 171 178 181 169 174 182 151 132 139 143 140 146 139 117 91 69 63 35 48 55 65 79
122 121 146 166 169 202 193 179 188 218 232 253 265 210 165 156 166 154 143 157 162 141 110 101 106 106 113 111 107 100 89 83 82 76 69 70 88 82
106 121 125 145 164 177 197 204 196 197 254 243 219 232 180 183 176 132 95 126 125 103 86 72 84 94 101 113 118 109 108 101 92 80 81 90 117 106
111 126 142 158 160 178 183 164 181 235 224 270 272 256 215 187 168 128 100 107 91 78 90 83 108 109 113 111 108 92 87 81 89 95 100 112 113 104
118 117 146 168 169 188 195 200 207 231 247 186 225 250 234 214 193 156 132 101 88 81 84 92 97 82 92 95 94 87 82 74 71 73 80 88 92 92
142 125 128 137 136 158 175 178 180 183 200 206 213 225 215 192 185 160 114 97 94 95 99 94 88 77 73 71 68 66 64 61 57 59 60 72 81 81
151 158 144 153 140 151 172 182 165 158 183 210 220 209 199 196 148 124 107 105 104 92 82 87 76 73 67 65 67 60 60 56 57 57 62 70 73 76
118 142 163 168 145 136 144 149 157 175 183 199 187 165 142 146 139 125 138 129 99 81 88 78 79 68 67 67 58 65 64 58 57 56 60 66 73 82
130 134 145 163 177 167 183 199 157 139 142 153 160 127 115 86 135 148 142 134 105 86 92 81 82 75 78 75 61 67 63 57 50 51 64 83 87 91
135 129 129 138 150 170 177 192 185 181 163 132 110 97 80 92 99 105 121 146 136 123 92 86 82 76 88 87 75 76 72 79 74 82 113 97 90 89
148 143 129 126 116 124 137 154 166 163 153 146 124 103 97 98 103 158 148 162 119 96 95 88 84 89 93 92 100 103 109 105 98 96 87 70 71 78
144 130 104 107 91 97 125 103 129 109 134 145 152 169 144 116 97 99 121 136 115 112 80 97 97 101 104 105 108 112 120 132 136 131 108 90 89 100
123 114 110 82 76 72 88 100 89 83 82 96 110 109 138 128 123 133 108 92 104 108 72 101 104 114 118 104 101 108 126 115 106 99 94 84 82 86
100 91 92 71 71 66 74 68 58 58 80 90 98 104 99 113 108 126 118 110 107 88 97 99 100 109 117 126 122 123 109 93 105 109 98 101 108 80
70 69 58 57 57 54 54 43 28 87 81 102 93 89 86 93 112 128 121 112 112 92 82 82 92 103 125 129 138 141 146 134 95 106 128 91 85 98
73 73 58 57 69 62 57 54 82 76 75 83 85 94 118 122 104 103 99 89 95 81 62 59 78 104 113 110 129 140 144 148 132 112 77 83 101 104
109 111 107 96 90 80 67 60 69 69 82 80 106 112 115 109 102 96 100 103 95 90 104 91 77 84 106 121 126 135 146 108 102 109 97 80 107 116
123 129 137 127 86 76 64 48 73 61 77 92 102 112 110 109 105 107 113 113 114 104 98 88 94 101 95 94 82 130 101 95 101 102 98 79 67 115
96 122 127 155 140 87 60 75 78 84 102 104 116 105 105 110 82 115 123 127 124 128 113 116 122 105 88 109 122 67 118 108 120 110 107 105 68 92
96 126 134 147 114 96 74 57 80 87 93 94 103 104 112 132 130 129 139 138 140 151 146 145 152 123 108 106 110 117 93 115 122 115 117 105 88 40
119 125 162 152 124 76 71 85 90 102 102 111 108 115 126 130 111 125 139 113 130 171 157 157 155 96 140 152 121 135 112 48 77 116 110 103 92 84
111 124 152 145 119 91 99 96 97 87 95 109 114 131 132 146 145 157 148 156 156 169 166 190 207 178 160 149 118 119 144 130 73 60 52 80 128 108
102 159 170 140 120 117 145 104 101 86 108 125 141 144 160 164 169 174 179 176 180 191 234 202 207 194 159 150 112 106 114 129 112 103 133 89 61 37

GFSNE_con_3kmhel_105.txt.gz
Helicity
74 72 93 111 119 131 167 210 207 191 184 204 247 217 214 191 185 177 173 196 206 204 204 166 151 142 125 130 135 96 91 115 124 123 60 34 49 63
78 82 84 100 108 122 143 163 186 182 181 213 215 216 217 198 186 204 179 182 192 184 182 162 117 120 108 95 87 80 78 67 54 33 29 53 57 70
83 77 75 86 103 117 123 145 155 183 198 240 242 207 240 219 197 198 175 148 155 164 173 135 87 85 92 93 110 105 91 96 87 73 74 68 84 79
75 84 81 95 97 121 139 139 153 181 215 260 262 256 243 248 212 199 175 151 155 144 120 93 84 109 113 100 102 106 97 98 105 94 98 93 86 74
82 82 96 97 101 126 143 154 161 181 207 206 226 270 242 195 217 220 200 178 176 154 106 91 89 94 102 89 94 97 92 87 89 83 84 86 76 71
116 114 113 117 108 114 122 139 164 169 199 202 219 225 230 232 238 237 195 163 153 133 117 103 98 96 93 75 78 72 74 66 67 64 70 76 76 77
105 113 116 123 122 118 131 134 163 171 174 189 188 195 205 255 236 216 191 160 117 102 93 104 92 95 93 89 74 51 53 61 64 66 71 72 68 65
77 92 110 133 144 130 128 131 128 157 163 189 193 185 184 191 224 203 213 168 118 86 92 92 90 81 71 68 62 68 68 72 64 61 62 62 57 59
74 81 103 131 156 168 179 169 137 123 135 156 162 155 168 157 194 188 154 146 112 95 120 96 96 78 69 84 72 73 69 62 45 42 51 59 76 83
82 67 94 127 145 143 147 151 154 162 158 144 123 114 112 122 138 135 149 163 160 137 109 99 94 79 78 97 89 77 71 62 53 53 70 93 90 90
83 8 77 125 123 118 130 141 151 155 161 164 128 130 116 94 114 166 166 170 145 115 106 96 93 91 92 89 106 111 98 80 78 87 97 92 83 82
96 55 96 111 101 102 115 117 137 141 137 169 180 199 167 103 89 113 134 154 140 118 90 109 106 103 99 91 107 118 117 131 149 127 114 115 107 105
95 90 105 84 80 80 98 100 102 104 101 135 135 143 132 118 114 118 117 120 128 102 88 127 111 123 112 95 98 103 112 117 119 121 124 110 94 85
97 105 95 58 61 64 76 77 75 88 112 108 110 101 90 85 108 127 125 123 105 74 90 115 100 105 116 118 98 119 120 111 117 126 125 133 138 97
111 91 72 51 50 65 67 70 49 101 100 98 85 55 69 77 102 137 139 143 145 120 111 112 97 99 112 106 98 118 144 131 124 117 146 152 114 97
109 96 81 71 70 76 60 66 77 95 98 88 65 67 102 109 91 112 116 117 114 100 92 76 72 94 107 95 107 116 134 142 134 144 137 111 99 86
122 126 110 100 101 131 92 68 69 66 73 64 75 85 81 90 106 102 109 103 87 84 102 86 71 78 80 93 92 111 132 132 137 129 132 104 101 87
151 122 114 121 117 135 134 100 59 45 56 69 71 82 84 89 116 126 106 91 102 93 95 89 102 101 86 65 73 116 126 127 137 138 124 92 94 110
155 121 116 110 122 144 144 128 111 74 76 69 86 84 111 105 90 110 104 129 102 91 92 102 111 121 106 95 88 62 110 133 140 127 110 101 86 111
174 131 123 115 124 132 153 166 140 78 62 73 83 88 106 118 126 120 132 148 120 112 118 120 128 144 147 108 104 98 81 149 142 129 118 93 66 28
125 136 142 130 140 144 131 97 85 80 86 104 94 106 109 129 115 126 134 104 95 123 102 95 130 135 184 193 135 118 95 82 125 140 114 100 94 83
129 125 129 129 168 172 150 121 99 69 79 92 92 120 129 135 127 135 151 165 153 174 147 154 219 227 230 203 135 141 128 138 113 70 62 91 128 110
125 135 130 130 163 171 153 129 104 66 98 111 129 135 140 144 132 128 149 166 183 159 173 188 221 248 216 197 151 139 141 145 157 146 117 55 31 31

GFSNE_con_3kmhel_108.txt.gz
Helicity
77 76 77 77 78 91 97 120 124 110 107 136 183 197 204 217 199 204 227 228 193 224 221 201 175 146 124 123 126 188 219 181 161 180 194 138 85 66
103 102 84 74 71 83 90 109 127 117 106 159 172 168 157 205 204 204 246 229 205 180 191 209 166 150 134 94 96 25 96 120 122 118 98 62 53 78
112 80 65 67 67 76 88 104 117 127 122 203 209 178 219 175 146 216 214 212 182 143 160 174 167 128 109 103 104 97 70 92 87 51 27 54 85 71
94 91 82 87 86 88 100 93 109 133 157 173 212 232 236 235 195 216 245 213 164 136 158 152 142 112 99 102 117 107 99 91 100 92 107 96 77 69
113 111 105 102 100 100 100 112 125 142 172 194 202 218 233 242 258 272 246 218 218 164 182 177 135 95 91 91 104 105 103 93 91 97 109 93 77 73
129 127 123 117 104 103 105 107 124 132 154 188 232 233 218 219 261 236 245 254 199 189 180 152 109 94 91 89 96 105 98 82 79 77 81 87 82 82
129 124 117 116 119 111 117 126 130 144 153 168 197 208 186 202 198 228 242 238 190 169 145 115 98 91 110 94 84 79 70 61 60 61 73 84 94 93
107 106 108 116 131 142 144 141 138 146 150 163 176 171 169 174 226 206 251 238 175 132 130 101 93 73 81 77 70 62 61 60 57 65 78 92 93 84
106 111 109 101 99 123 161 184 184 161 114 127 139 149 162 164 208 237 230 191 149 92 124 101 97 82 83 81 62 60 67 70 55 57 71 87 90 91
112 126 119 91 37 73 144 157 157 149 143 126 112 113 116 141 165 171 197 207 158 116 110 81 98 95 91 90 101 58 68 63 50 50 61 80 88 90
113 120 125 107 30 83 145 153 155 152 148 145 114 120 120 117 163 205 178 174 120 89 87 82 91 115 98 97 113 66 73 59 58 60 87 97 88 79
95 99 112 101 63 89 127 128 135 129 137 144 148 170 186 136 137 143 140 150 129 80 73 113 97 108 94 93 90 93 104 104 114 84 80 75 82 101
86 93 104 103 103 103 109 99 101 95 109 120 126 129 148 147 137 123 103 99 123 94 57 125 96 111 110 86 99 95 94 98 112 120 129 111 84 86
87 87 94 88 108 105 92 70 59 86 95 104 100 93 104 120 110 103 110 130 105 73 70 106 92 115 117 102 75 92 94 94 96 108 119 121 127 116
103 85 68 75 72 80 71 78 67 101 96 99 99 93 77 62 78 92 120 138 146 129 111 98 96 107 98 90 79 85 99 82 113 119 129 138 132 128
101 102 91 85 73 76 93 102 106 95 101 87 89 88 78 78 61 63 97 97 113 125 108 94 92 97 91 78 84 82 78 86 99 125 142 127 123 108
119 131 124 118 103 106 103 108 105 103 102 92 71 66 68 70 63 76 109 93 119 96 99 93 76 70 73 70 65 54 75 88 100 112 127 110 93 93
121 140 119 115 108 109 100 106 102 105 124 105 72 65 71 64 93 93 85 87 85 87 88 97 107 90 76 53 44 73 79 86 100 100 119 119 101 102
113 152 128 125 124 115 113 116 121 128 113 80 72 71 90 68 59 91 84 88 96 103 125 144 120 112 103 86 80 47 84 92 104 93 108 116 101 108
109 119 122 152 143 125 127 126 129 131 101 96 100 83 83 82 108 104 110 113 113 143 137 154 125 102 97 67 81 95 81 118 131 105 98 105 74 33
117 114 134 150 147 139 142 139 125 122 112 104 94 65 90 108 100 112 124 83 105 127 95 114 109 57 134 129 98 108 120 84 143 131 103 103 89 81
148 125 129 145 145 148 159 145 131 121 107 75 63 88 96 109 113 128 153 143 118 140 128 153 185 209 203 141 119 131 155 136 120 83 64 90 123 97
103 112 113 125 124 136 143 146 137 117 127 140 105 51 95 113 110 126 142 147 146 142 153 180 213 191 183 167 122 138 162 164 167 150 107 47 40 48

GFSNE_con_3kmhel_111.txt.gz
Helicity
109 108 100 106 103 98 94 89 107 124 110 94 108 92 140 166 140 113 150 160 227 190 181 183 177 151 143 120 85 182 283 331 356 338 285 189 133 109
110 113 111 104 100 93 90 97 102 101 145 141 118 132 120 128 140 155 184 179 161 166 142 178 175 154 157 141 111 86 142 227 285 236 110 104 117 77
99 96 96 91 94 98 105 110 120 145 156 184 170 144 154 190 210 206 181 171 207 152 148 133 177 173 164 150 109 65 64 40 52 59 72 81 47 39
115 102 93 94 97 102 106 112 122 136 166 167 175 162 172 170 193 232 218 212 203 168 133 89 158 168 157 150 134 108 86 96 105 79 65 76 73 70
131 126 118 106 101 105 107 105 115 127 147 160 156 153 192 192 226 238 282 263 229 184 138 132 151 156 150 133 103 100 94 72 69 99 104 93 87 82
126 120 118 115 108 102 105 113 120 128 153 173 180 184 180 200 226 245 241 243 238 287 219 187 155 135 132 111 104 95 82 72 64 78 78 82 81 79
121 111 109 112 116 119 115 121 134 146 160 180 202 193 183 191 183 207 241 248 192 185 175 165 137 136 133 96 88 85 72 68 57 65 63 65 69 83
126 119 121 131 140 134 130 139 143 161 173 190 200 194 184 173 198 215 254 261 215 159 166 134 125 91 91 81 77 54 68 64 53 60 62 68 71 79
101 105 117 125 137 136 110 84 173 225 205 176 162 155 155 147 179 196 220 219 195 157 154 123 114 71 80 81 64 46 62 64 55 55 62 69 71 65
81 93 101 114 117 113 100 40 102 168 177 163 138 123 121 120 141 140 166 232 221 173 144 95 90 79 81 81 92 47 57 61 51 49 52 60 69 72
92 93 91 99 100 104 114 78 67 138 156 174 156 130 120 105 136 178 166 202 169 129 103 86 78 86 78 75 93 52 57 55 52 44 47 63 70 70
76 82 80 82 85 90 108 101 61 110 127 122 122 145 161 149 133 128 116 157 144 118 80 87 84 77 68 79 85 95 88 88 63 43 65 80 70 86
50 71 83 83 82 90 94 110 90 105 109 107 104 112 127 127 121 130 102 95 120 98 52 115 88 85 121 75 95 75 77 84 95 122 131 108 70 65
41 65 73 69 79 85 96 97 80 96 98 102 101 111 117 110 103 105 114 111 87 73 53 86 69 90 93 88 81 79 85 85 88 87 94 90 75 65
85 63 61 66 73 85 89 97 94 110 110 99 89 98 91 77 76 96 104 103 93 108 112 77 69 59 74 96 82 74 94 69 74 78 85 80 80 88
87 80 93 93 83 86 102 118 120 101 103 93 86 87 84 76 70 66 80 81 87 92 104 105 77 71 83 80 71 77 67 69 64 77 73 77 84 89
101 113 115 102 95 98 110 113 106 100 97 105 87 88 76 80 69 63 82 79 70 76 79 73 75 70 76 61 76 72 83 85 72 75 77 68 63 72
107 118 103 90 82 88 96 97 99 89 92 93 86 92 93 75 64 69 69 89 102 93 105 89 75 88 86 69 49 84 80 74 66 64 63 59 49 65
92 118 110 99 84 82 85 92 92 90 100 94 92 86 70 60 54 61 56 73 64 77 71 78 98 145 136 132 132 41 82 72 67 61 56 64 68 78
113 97 93 95 93 85 86 91 88 82 83 84 82 76 64 59 63 68 76 80 83 90 82 98 115 125 120 145 135 98 63 68 70 59 55 54 42 15
113 102 86 97 98 98 92 94 90 82 82 88 99 112 88 81 83 67 63 60 77 91 88 93 145 99 147 137 120 100 86 24 48 68 76 72 70 68
103 106 94 94 89 84 89 91 89 78 82 91 89 90 89 97 82 70 85 102 99 100 112 113 132 129 136 111 89 88 111 103 52 27 52 74 104 67
86 83 86 86 87 83 83 81 87 77 84 90 88 95 105 104 80 83 85 112 125 101 132 143 146 150 144 146 110 98 88 103 119 102 98 49 43 48

GFSNE_con_3kmhel_114.txt.gz
Helicity
104 111 113 118 103 97 91 97 110 107 94 89 111 96 98 96 97 106 97 151 245 251 206 161 110 108 119 109 100 104 191 217 238 332 325 236 213 164
114 108 97 89 85 88 91 93 108 130 166 147 162 146 135 132 117 103 132 162 164 201 159 117 128 110 123 115 121 100 169 286 308 318 316 237 155 170
86 97 97 97 100 98 96 97 106 117 134 155 156 154 164 143 144 170 174 163 176 173 175 161 126 129 117 121 117 104 95 134 192 210 230 127 178 96
96 91 89 90 93 96 104 98 104 116 147 132 157 151 159 152 167 180 183 180 178 159 171 173 113 101 126 153 197 197 178 106 75 99 98 145 83 43
117 119 124 107 104 101 103 96 107 126 138 155 152 152 149 159 200 229 211 211 202 161 179 167 125 102 109 137 179 161 156 159 128 87 100 68 43 55
146 143 140 119 107 106 102 104 96 111 124 140 160 169 164 175 194 218 235 221 208 208 264 223 131 105 111 132 145 129 109 120 132 133 136 125 105 62
135 127 122 122 112 116 114 111 110 114 117 137 168 186 183 185 176 195 225 224 201 206 218 210 162 141 150 145 155 112 89 79 93 97 84 63 57 75
118 111 108 88 84 111 131 145 128 91 106 155 190 191 176 172 186 206 237 232 200 163 189 174 160 121 136 130 108 83 78 66 68 71 70 64 63 71
102 90 94 106 107 120 120 121 118 108 87 139 153 177 179 160 167 182 190 196 187 163 137 148 160 124 130 103 82 68 67 60 58 59 63 65 67 54
90 91 99 105 111 115 115 116 114 108 79 106 126 130 135 117 118 129 152 201 194 164 164 153 121 100 101 78 58 49 60 60 61 56 48 58 63 63
57 76 90 88 95 86 95 101 110 117 108 111 154 164 123 97 114 162 167 193 166 136 120 157 121 118 69 67 72 54 56 54 55 48 42 48 53 64
34 58 57 64 88 81 84 95 110 127 116 96 125 147 145 150 158 137 135 161 175 129 118 128 115 70 48 66 70 85 67 58 53 46 38 33 53 70
56 54 47 59 76 77 78 97 104 128 121 105 121 128 118 116 121 134 128 126 145 126 68 103 91 91 87 42 59 81 77 74 84 90 57 69 56 63
76 68 42 55 80 81 79 77 91 111 120 101 107 112 107 105 109 117 122 115 114 102 86 73 70 81 95 73 84 88 61 82 87 89 104 105 94 63
53 24 52 60 66 75 69 75 83 103 108 112 100 96 92 92 97 102 100 99 109 121 110 100 84 77 90 95 82 67 87 80 84 95 94 90 77 68
30 18 48 78 73 82 86 84 91 90 94 101 97 100 89 82 83 90 85 87 81 82 103 94 88 85 80 59 79 89 77 93 73 77 74 69 69 75
77 96 96 98 99 87 84 84 87 87 92 88 90 91 91 83 77 90 83 81 80 67 72 89 95 91 82 78 92 64 75 85 68 61 79 71 42 51
80 81 93 107 107 93 80 78 80 81 84 85 84 88 90 84 80 87 87 65 63 68 67 56 74 89 83 47 38 96 105 138 111 114 90 87 49 39
109 107 112 115 108 103 86 73 72 79 99 95 89 90 91 86 82 73 61 51 54 52 68 94 99 111 113 111 130 48 122 145 152 96 92 62 61 50
147 125 111 101 98 98 92 82 74 78 88 85 88 89 90 89 81 72 59 53 59 57 74 73 69 86 112 121 151 158 90 155 100 95 90 58 47 26
131 121 120 115 106 94 72 78 87 96 102 103 89 92 92 95 85 75 60 45 48 64 71 95 120 83 124 129 125 111 130 44 68 123 115 93 104 79
131 118 109 114 116 99 93 89 89 89 100 99 93 92 89 91 86 88 75 93 99 111 78 96 140 132 123 113 101 114 72 75 55 51 73 92 124 92
120 107 112 103 99 101 95 92 87 88 97 98 100 96 90 79 73 74 88 107 109 91 105 114 121 111 111 110 86 104 71 92 102 90 82 37 24 7

GFSNE_con_3kmhel_117.txt.gz
Helicity
129 135 119 107 89 89 82 88 99 81 45 50 103 86 86 104 104 101 113 118 156 207 254 223 167 155 110 66 65 70 117 104 125 228 282 246 151 87
120 97 98 89 72 84 86 87 112 131 143 128 168 144 86 95 132 119 144 165 181 182 193 208 161 110 94 68 75 92 112 254 189 226 223 211 219 218
123 103 88 82 86 89 102 101 102 116 121 102 131 125 109 114 123 127 165 167 178 173 168 166 152 121 101 93 76 86 106 158 291 324 384 398 330 188
110 95 96 118 95 107 101 102 127 110 134 109 121 112 102 113 124 140 151 169 183 168 145 143 140 149 154 113 108 148 154 163 127 127 158 217 237 184
133 125 130 114 116 124 99 95 105 112 115 125 120 129 133 138 154 163 164 185 190 172 138 126 117 139 131 105 126 148 190 228 169 85 101 128 98 75
169 157 132 118 126 120 112 109 135 101 87 87 111 118 121 144 151 156 188 207 185 184 216 186 161 131 111 76 100 161 168 232 225 148 162 136 52 52
162 147 145 159 144 146 124 123 96 96 100 111 110 117 134 147 157 164 172 192 184 163 155 187 176 167 124 121 111 142 149 170 165 155 130 119 109 65
144 147 127 112 105 120 136 150 167 136 86 73 64 61 97 143 173 176 187 196 191 129 141 152 170 162 150 139 105 120 127 109 109 120 98 86 74 77
168 138 123 119 105 105 106 113 111 128 128 117 83 55 101 139 160 168 171 177 177 160 160 152 150 121 115 124 81 89 98 70 80 83 80 77 70 65
126 113 104 97 113 121 119 143 113 109 131 135 106 70 79 111 129 135 146 164 170 154 158 143 132 109 114 110 89 67 58 45 51 61 65 63 59 58
82 71 72 77 117 105 110 125 114 123 143 138 135 107 88 102 116 156 161 195 161 138 130 149 123 140 134 103 83 48 46 44 54 62 55 51 51 65
67 53 34 44 84 86 100 106 120 146 148 132 126 129 124 140 161 136 127 150 166 134 106 147 140 140 111 101 90 63 78 50 54 43 30 28 45 86
40 41 62 50 44 51 77 104 116 135 118 122 124 123 110 117 120 117 114 113 137 131 91 130 118 133 110 75 70 89 88 73 64 41 22 27 52 62
69 79 81 61 56 60 90 99 103 112 107 113 117 105 113 109 114 112 107 109 114 112 92 113 87 98 129 99 62 54 63 46 62 83 92 76 68 44
97 92 79 59 50 55 63 81 88 109 100 113 106 110 122 123 111 101 101 107 111 117 126 110 108 103 70 67 60 54 91 42 76 79 119 128 120 111
114 125 97 52 52 78 94 82 97 98 112 113 102 114 122 107 100 98 95 95 89 85 101 109 73 69 80 82 105 92 85 84 91 97 129 102 93 91
180 188 132 97 95 99 95 89 99 111 114 109 108 110 106 111 105 110 90 83 79 76 70 81 91 87 93 85 87 82 70 90 80 103 117 105 76 71
212 174 117 86 88 102 103 103 110 95 113 106 110 100 109 113 107 103 86 80 78 86 77 68 79 81 84 72 40 86 97 103 110 115 114 137 114 74
210 178 134 120 101 110 112 108 109 110 111 116 114 110 117 100 86 108 95 87 80 74 67 80 72 84 89 86 76 33 118 115 158 163 154 147 141 121
168 156 136 142 138 124 119 111 100 105 120 118 108 112 119 118 92 85 101 98 86 80 71 80 74 78 111 135 131 134 63 151 162 142 161 111 91 53
154 172 170 160 142 139 133 122 102 102 107 128 115 119 116 110 102 104 103 72 65 72 65 76 88 68 128 105 116 121 131 68 138 162 159 135 135 117
157 162 165 158 153 138 128 128 130 110 107 116 107 98 96 102 101 105 110 115 98 97 87 86 103 110 135 134 113 131 152 155 74 96 82 91 114 74
145 146 136 127 128 121 131 132 120 116 111 109 112 112 95 91 86 97 97 105 111 112 110 115 130 147 107 102 108 121 125 154 125 116 79 6 -5 -2

GFSNE_con_3kmhel_120.txt.gz
Helicity
-2 58 131 146 132 110 116 93 70 42 38 77 67 78 67 66 58 80 88 111 123 154 230 270 224 197 152 102 84 92 61 45 33 41 146 172 173 224
126 130 125 123 120 106 97 92 105 109 94 107 107 82 66 65 85 92 108 137 135 154 166 170 150 125 99 78 90 63 69 88 139 96 182 229 216 199
151 112 109 110 94 96 99 99 100 113 101 74 77 86 67 65 63 75 94 113 129 153 158 149 154 144 128 121 89 63 71 115 197 196 197 218 229 326
116 121 119 127 125 119 118 127 127 138 123 80 91 96 93 94 95 102 98 108 134 156 143 132 123 154 144 112 113 98 85 125 121 183 212 396 402 291
121 131 141 134 133 133 121 117 125 122 113 96 86 99 97 109 121 135 152 153 147 157 160 135 137 132 131 133 124 133 137 137 143 115 160 233 166 169
204 187 187 169 166 145 125 118 133 127 100 85 102 115 100 104 115 118 127 165 153 168 206 174 136 157 123 110 107 103 133 161 163 177 183 162 139 103
208 198 197 185 186 171 147 154 125 103 95 103 105 123 100 85 69 108 129 155 164 156 169 191 178 132 110 132 117 117 80 134 161 139 157 148 108 95
189 195 184 163 137 126 131 148 134 123 124 126 115 103 70 39 45 71 119 153 173 167 177 171 140 141 124 102 115 104 57 99 116 89 116 113 123 126
199 187 169 144 120 103 95 106 117 135 139 144 116 105 95 93 55 65 99 140 162 171 178 184 168 139 121 121 95 82 63 80 98 74 66 74 108 114
182 151 143 122 111 131 135 140 131 112 122 135 117 107 94 76 66 69 109 130 155 153 154 169 145 128 129 115 81 58 68 68 56 54 42 81 91 93
176 158 135 112 87 104 116 124 126 124 133 130 118 108 103 103 78 108 113 148 150 135 135 163 122 130 125 101 86 56 58 52 40 30 50 65 83 83
170 140 116 104 84 75 80 86 111 145 148 136 127 120 127 131 129 118 116 135 158 142 110 149 142 134 111 94 100 90 64 44 35 38 38 47 48 81
163 131 106 82 83 63 40 44 72 126 126 126 118 118 121 126 131 113 118 124 142 142 102 104 108 135 137 93 68 79 84 74 64 41 27 24 21 52
160 141 130 98 73 52 57 48 48 95 131 134 129 115 109 111 122 119 110 110 116 118 100 113 115 115 114 84 65 80 90 75 66 38 19 15 8 33
180 153 120 91 54 45 34 38 61 111 116 130 117 114 114 111 127 131 112 112 124 117 110 106 102 107 82 70 86 79 86 68 77 58 44 68 74 106
160 166 136 103 82 67 64 74 87 93 102 112 111 106 134 128 107 106 116 114 109 104 101 88 89 86 76 71 57 51 68 51 75 73 63 77 101 99
177 203 196 164 121 97 73 77 88 93 105 112 116 126 132 120 98 108 111 96 94 101 90 93 91 79 67 63 47 50 75 84 66 89 99 76 71 81
255 231 192 149 119 113 93 77 86 86 102 108 113 117 117 118 111 122 101 100 92 84 97 97 87 98 76 45 46 57 68 74 68 69 80 90 60 62
222 180 197 150 127 135 113 101 95 94 102 112 122 121 118 118 94 98 81 73 78 82 81 107 109 110 115 103 70 39 99 100 109 96 104 101 127 116
134 135 137 168 152 130 110 111 106 104 116 110 117 128 132 136 129 89 77 99 101 82 76 98 88 94 103 82 74 66 36 104 126 115 132 107 124 87
115 122 144 152 142 151 132 113 118 114 119 132 124 125 131 143 118 131 118 62 69 99 91 98 103 71 89 81 85 114 110 67 124 149 157 132 115 90
140 132 152 167 169 170 152 133 130 129 123 130 135 122 116 118 107 120 114 108 84 111 117 103 79 105 122 95 102 138 117 103 74 73 97 115 105 84
124 136 150 152 142 143 140 137 131 129 124 131 135 131 128 116 103 102 97 100 110 101 101 119 118 132 110 91 91 123 163 149 129 130 103 67 42 41